Time,TemperatureF,DewpointF,PressureIn,WindDirection,WindDirectionDegrees,WindSpeedMPH,WindSpeedGustMPH,Humidity,HourlyPrecipIn,Conditions,Clouds,dailyrainin,SoftwareType,DateUTC
2013-07-30 00:01:00,63.9,56.2,30.05,NW,315,1.6,2.7,76,0.00,,,0.00,WUHU216HW,2013-07-30 04:01:00,
2013-07-30 00:02:00,63.9,56.2,30.05,NW,315,1.6,2.7,76,0.00,,,0.00,WUHU216HW,2013-07-30 04:02:00,
2013-07-30 00:03:00,63.7,56.0,30.05,WNW,293,0.7,1.6,76,0.00,,,0.00,WUHU216HW,2013-07-30 04:03:00,
2013-07-30 00:06:00,63.7,56.0,30.05,NW,315,0.7,1.6,76,0.00,,,0.00,WUHU216HW,2013-07-30 04:06:00,
2013-07-30 00:07:00,63.7,56.0,30.05,North,0,1.1,1.6,76,0.00,,,0.00,WUHU216HW,2013-07-30 04:07:00,
2013-07-30 00:08:00,63.7,56.0,30.05,NW,315,1.1,1.6,76,0.00,,,0.00,WUHU216HW,2013-07-30 04:08:00,
2013-07-30 00:12:00,63.7,55.3,30.04,WSW,248,0.4,2.2,74,0.00,,,0.00,WUHU216HW,2013-07-30 04:12:00,
2013-07-30 00:13:00,63.7,55.3,30.04,WSW,248,0.4,2.2,74,0.00,,,0.00,WUHU216HW,2013-07-30 04:13:00,
2013-07-30 00:15:00,63.9,55.4,30.04,WSW,248,0.0,2.2,74,0.00,,,0.00,WUHU216HW,2013-07-30 04:15:00,
2013-07-30 00:18:00,63.9,55.4,30.04,West,270,1.3,2.2,74,0.00,,,0.00,WUHU216HW,2013-07-30 04:18:00,
2013-07-30 00:19:00,63.9,55.4,30.04,West,270,1.3,2.2,74,0.00,,,0.00,WUHU216HW,2013-07-30 04:19:00,
2013-07-30 00:20:00,63.9,55.4,30.04,WNW,293,0.7,1.6,74,0.00,,,0.00,WUHU216HW,2013-07-30 04:20:00,
2013-07-30 00:23:00,63.9,55.4,30.04,NNW,338,0.4,1.3,74,0.00,,,0.00,WUHU216HW,2013-07-30 04:23:00,
2013-07-30 00:24:00,64.1,55.6,30.04,WNW,293,1.1,1.3,74,0.00,,,0.00,WUHU216HW,2013-07-30 04:24:00,
2013-07-30 00:27:00,63.9,55.4,30.05,WSW,248,1.1,1.3,74,0.00,,,0.00,WUHU216HW,2013-07-30 04:27:00,
2013-07-30 00:28:00,63.9,55.4,30.05,WSW,248,0.0,1.3,74,0.00,,,0.00,WUHU216HW,2013-07-30 04:28:00,
2013-07-30 00:29:00,63.7,55.3,30.04,WSW,248,0.0,1.3,74,0.00,,,0.00,WUHU216HW,2013-07-30 04:29:00,
2013-07-30 00:30:00,63.7,55.3,30.05,WSW,248,0.0,1.3,74,0.00,,,0.00,WUHU216HW,2013-07-30 04:30:00,
2013-07-30 00:32:00,63.5,55.1,30.04,WSW,248,0.0,1.3,74,0.00,,,0.00,WUHU216HW,2013-07-30 04:32:00,
2013-07-30 00:33:00,63.5,55.1,30.05,WSW,248,0.0,1.3,74,0.00,,,0.00,WUHU216HW,2013-07-30 04:33:00,
2013-07-30 00:34:00,63.5,55.1,30.05,WSW,248,0.0,1.3,74,0.00,,,0.00,WUHU216HW,2013-07-30 04:34:00,
2013-07-30 00:36:00,63.4,55.3,30.05,WSW,248,0.0,0.7,75,0.00,,,0.00,WUHU216HW,2013-07-30 04:36:00,
2013-07-30 00:37:00,63.4,55.3,30.05,WSW,248,1.1,1.1,75,0.00,,,0.00,WUHU216HW,2013-07-30 04:37:00,
2013-07-30 00:38:00,63.4,55.3,30.05,WSW,248,1.1,1.1,75,0.00,,,0.00,WUHU216HW,2013-07-30 04:38:00,
2013-07-30 00:39:00,63.4,55.6,30.05,WSW,248,1.8,1.8,76,0.00,,,0.00,WUHU216HW,2013-07-30 04:39:00,
2013-07-30 00:40:00,63.4,55.6,30.05,WSW,248,1.8,1.8,76,0.00,,,0.00,WUHU216HW,2013-07-30 04:40:00,
2013-07-30 00:41:00,63.2,55.4,30.05,West,270,1.1,1.8,76,0.00,,,0.00,WUHU216HW,2013-07-30 04:41:00,
2013-07-30 00:43:00,63.2,55.1,30.05,WNW,293,1.3,1.8,75,0.00,,,0.00,WUHU216HW,2013-07-30 04:43:00,
2013-07-30 00:44:00,63.2,54.7,30.05,West,270,2.5,2.5,74,0.00,,,0.00,WUHU216HW,2013-07-30 04:44:00,
2013-07-30 00:45:00,63.2,54.7,30.05,WSW,248,1.8,2.5,74,0.00,,,0.00,WUHU216HW,2013-07-30 04:45:00,
2013-07-30 00:46:00,63.2,54.7,30.05,WSW,248,1.8,2.5,74,0.00,,,0.00,WUHU216HW,2013-07-30 04:46:00,
2013-07-30 00:49:00,63.4,54.9,30.05,WNW,293,0.0,2.5,74,0.00,,,0.00,WUHU216HW,2013-07-30 04:49:00,
2013-07-30 00:50:00,63.4,54.9,30.05,East,90,0.0,2.5,74,0.00,,,0.00,WUHU216HW,2013-07-30 04:50:00,
2013-07-30 00:51:00,63.4,54.9,30.05,East,90,0.0,2.5,74,0.00,,,0.00,WUHU216HW,2013-07-30 04:51:00,
2013-07-30 00:52:00,63.4,54.9,30.05,East,90,0.0,2.5,74,0.00,,,0.00,WUHU216HW,2013-07-30 04:52:00,
2013-07-30 00:54:00,63.4,54.9,30.05,East,90,0.0,2.5,74,0.00,,,0.00,WUHU216HW,2013-07-30 04:54:00,
2013-07-30 00:55:00,63.2,54.7,30.05,East,90,0.0,0.9,74,0.00,,,0.00,WUHU216HW,2013-07-30 04:55:00,
2013-07-30 00:58:00,63.2,54.7,30.05,East,90,0.0,0.0,74,0.00,,,0.00,WUHU216HW,2013-07-30 04:58:00,
2013-07-30 00:59:00,63.0,54.5,30.05,NNW,338,0.0,0.0,74,0.00,,,0.00,WUHU216HW,2013-07-30 04:59:00,
2013-07-30 01:00:00,63.0,54.5,30.05,NNW,338,0.9,0.9,74,0.00,,,0.00,WUHU216HW,2013-07-30 05:00:00,
2013-07-30 01:01:00,63.0,54.5,30.05,NNW,338,0.7,0.9,74,0.00,,,0.00,WUHU216HW,2013-07-30 05:01:00,
2013-07-30 01:03:00,63.0,54.5,30.05,West,270,0.7,0.9,74,0.00,,,0.00,WUHU216HW,2013-07-30 05:03:00,
2013-07-30 01:04:00,63.0,54.5,30.05,West,270,1.1,1.1,74,0.00,,,0.00,WUHU216HW,2013-07-30 05:04:00,
2013-07-30 01:06:00,63.0,54.5,30.05,NW,315,1.1,1.1,74,0.00,,,0.00,WUHU216HW,2013-07-30 05:06:00,
2013-07-30 01:07:00,63.0,54.9,30.05,NNW,338,1.1,1.1,75,0.00,,,0.00,WUHU216HW,2013-07-30 05:07:00,
2013-07-30 01:08:00,63.0,54.9,30.05,North,0,0.4,1.1,75,0.00,,,0.00,WUHU216HW,2013-07-30 05:08:00,
2013-07-30 01:10:00,63.0,54.9,30.05,NNW,338,1.1,1.1,75,0.00,,,0.00,WUHU216HW,2013-07-30 05:10:00,
2013-07-30 01:12:00,63.0,54.9,30.05,WNW,293,1.8,1.8,75,0.00,,,0.00,WUHU216HW,2013-07-30 05:12:00,
2013-07-30 01:13:00,63.0,54.9,30.05,West,270,2.0,2.0,75,0.00,,,0.00,WUHU216HW,2013-07-30 05:13:00,
2013-07-30 01:15:00,63.0,54.9,30.05,WNW,293,1.1,2.0,75,0.00,,,0.00,WUHU216HW,2013-07-30 05:15:00,
2013-07-30 01:17:00,63.0,54.9,30.05,NW,315,1.8,2.0,75,0.00,,,0.00,WUHU216HW,2013-07-30 05:17:00,
2013-07-30 01:18:00,63.2,55.1,30.05,NW,315,2.0,2.5,75,0.00,,,0.00,WUHU216HW,2013-07-30 05:18:00,
2013-07-30 01:19:00,63.2,55.1,30.05,NW,315,2.0,2.5,75,0.00,,,0.00,WUHU216HW,2013-07-30 05:19:00,
2013-07-30 01:21:00,63.2,55.4,30.05,North,0,0.7,2.5,76,0.00,,,0.00,WUHU216HW,2013-07-30 05:21:00,
2013-07-30 01:23:00,63.2,55.1,30.05,NNW,338,0.0,2.5,75,0.00,,,0.00,WUHU216HW,2013-07-30 05:23:00,
2013-07-30 01:24:00,63.2,55.1,30.05,NNW,338,0.0,2.5,75,0.00,,,0.00,WUHU216HW,2013-07-30 05:24:00,
2013-07-30 01:25:00,63.2,55.1,30.05,NNW,338,0.0,2.5,75,0.00,,,0.00,WUHU216HW,2013-07-30 05:25:00,
2013-07-30 01:27:00,63.2,55.4,30.05,NNW,338,0.0,2.0,76,0.00,,,0.00,WUHU216HW,2013-07-30 05:27:00,
2013-07-30 01:28:00,63.2,55.4,30.05,NNW,338,0.0,1.3,76,0.00,,,0.00,WUHU216HW,2013-07-30 05:28:00,
2013-07-30 01:29:00,63.0,55.3,30.05,NNW,338,0.0,0.7,76,0.00,,,0.00,WUHU216HW,2013-07-30 05:29:00,
2013-07-30 01:30:00,63.0,55.3,30.05,NNW,338,0.0,0.7,76,0.00,,,0.00,WUHU216HW,2013-07-30 05:30:00,
2013-07-30 01:32:00,63.0,55.3,30.05,SSE,158,1.1,1.1,76,0.00,,,0.00,WUHU216HW,2013-07-30 05:32:00,
2013-07-30 01:34:00,63.0,55.6,30.05,SSE,158,0.4,1.1,77,0.00,,,0.00,WUHU216HW,2013-07-30 05:34:00,
2013-07-30 01:35:00,62.6,56.0,30.05,SSW,203,0.0,1.1,79,0.00,,,0.00,WUHU216HW,2013-07-30 05:35:00,
2013-07-30 01:37:00,62.5,55.4,30.05,SSW,203,0.0,1.1,78,0.00,,,0.00,WUHU216HW,2013-07-30 05:37:00,
2013-07-30 01:40:00,62.3,55.3,30.05,NNE,23,0.0,1.1,78,0.00,,,0.00,WUHU216HW,2013-07-30 05:40:00,
2013-07-30 01:43:00,62.1,55.2,30.05,SSW,203,0.0,0.4,78,0.00,,,0.00,WUHU216HW,2013-07-30 05:43:00,
2013-07-30 01:44:00,62.1,55.2,30.05,SSW,203,0.0,0.0,78,0.00,,,0.00,WUHU216HW,2013-07-30 05:44:00,
2013-07-30 01:45:00,62.1,55.2,30.05,SW,225,0.0,0.0,78,0.00,,,0.00,WUHU216HW,2013-07-30 05:45:00,
2013-07-30 01:46:00,62.1,55.2,30.05,SW,225,0.0,0.0,78,0.00,,,0.00,WUHU216HW,2013-07-30 05:46:00,
2013-07-30 01:49:00,61.9,55.0,30.05,SSE,158,0.0,0.0,78,0.00,,,0.00,WUHU216HW,2013-07-30 05:49:00,
2013-07-30 01:51:00,61.9,55.0,30.05,SW,225,1.1,1.1,78,0.00,,,0.00,WUHU216HW,2013-07-30 05:51:00,
2013-07-30 01:53:00,61.9,55.4,30.05,SSW,203,0.7,1.1,79,0.00,,,0.00,WUHU216HW,2013-07-30 05:53:00,
2013-07-30 01:55:00,61.7,55.9,30.05,SW,225,0.9,1.1,81,0.00,,,0.00,WUHU216HW,2013-07-30 05:55:00,
2013-07-30 01:58:00,61.6,55.4,30.05,SW,225,0.0,1.1,80,0.00,,,0.00,WUHU216HW,2013-07-30 05:58:00,
2013-07-30 01:59:00,61.6,55.4,30.05,SW,225,0.0,1.1,80,0.00,,,0.00,WUHU216HW,2013-07-30 05:59:00,
2013-07-30 02:00:00,61.6,55.4,30.05,SW,225,0.0,0.9,80,0.00,,,0.00,WUHU216HW,2013-07-30 06:00:00,
2013-07-30 02:01:00,61.6,55.0,30.05,West,270,0.7,0.9,79,0.00,,,0.00,WUHU216HW,2013-07-30 06:01:00,
2013-07-30 02:03:00,61.4,54.8,30.05,WNW,293,1.1,1.3,79,0.00,,,0.00,WUHU216HW,2013-07-30 06:03:00,
2013-07-30 02:04:00,61.4,54.8,30.05,WNW,293,1.1,1.3,79,0.00,,,0.00,WUHU216HW,2013-07-30 06:04:00,
2013-07-30 02:05:00,61.4,55.2,30.05,NW,315,0.7,1.3,80,0.00,,,0.00,WUHU216HW,2013-07-30 06:05:00,
2013-07-30 02:06:00,61.4,55.2,30.05,NW,315,0.9,1.3,80,0.00,,,0.00,WUHU216HW,2013-07-30 06:06:00,
2013-07-30 02:09:00,61.6,55.0,30.05,West,270,0.4,1.3,79,0.00,,,0.00,WUHU216HW,2013-07-30 06:09:00,
2013-07-30 02:11:00,61.6,55.0,30.05,West,270,0.0,1.3,79,0.00,,,0.00,WUHU216HW,2013-07-30 06:11:00,
2013-07-30 02:12:00,61.6,55.0,30.05,West,270,0.0,1.1,79,0.00,,,0.00,WUHU216HW,2013-07-30 06:12:00,
2013-07-30 02:13:00,61.6,55.0,30.05,WNW,293,1.1,1.1,79,0.00,,,0.00,WUHU216HW,2013-07-30 06:13:00,
2013-07-30 02:15:00,61.6,55.0,30.05,NW,315,0.9,1.1,79,0.00,,,0.00,WUHU216HW,2013-07-30 06:15:00,
2013-07-30 02:16:00,61.7,54.8,30.04,NW,315,1.8,1.8,78,0.00,,,0.00,WUHU216HW,2013-07-30 06:16:00,
2013-07-30 02:17:00,61.6,54.6,30.04,NNW,338,0.9,1.8,78,0.00,,,0.00,WUHU216HW,2013-07-30 06:17:00,
2013-07-30 02:18:00,61.6,54.6,30.04,NNW,338,0.9,1.8,78,0.00,,,0.00,WUHU216HW,2013-07-30 06:18:00,
2013-07-30 02:20:00,61.6,55.0,30.04,NNW,338,1.3,1.8,79,0.00,,,0.00,WUHU216HW,2013-07-30 06:20:00,
2013-07-30 02:22:00,61.6,55.0,30.04,West,270,1.6,1.8,79,0.00,,,0.00,WUHU216HW,2013-07-30 06:22:00,
2013-07-30 02:23:00,61.6,55.0,30.04,West,270,1.6,1.8,79,0.00,,,0.00,WUHU216HW,2013-07-30 06:23:00,
2013-07-30 02:25:00,61.6,55.0,30.04,SSW,203,0.4,2.5,79,0.00,,,0.00,WUHU216HW,2013-07-30 06:25:00,
2013-07-30 02:28:00,61.2,54.7,30.04,SSE,158,0.0,2.5,79,0.00,,,0.00,WUHU216HW,2013-07-30 06:28:00,
2013-07-30 02:29:00,61.2,54.7,30.04,SSE,158,0.0,2.5,79,0.00,,,0.00,WUHU216HW,2013-07-30 06:29:00,
2013-07-30 02:31:00,60.8,54.4,30.04,West,270,0.9,2.5,79,0.00,,,0.00,WUHU216HW,2013-07-30 06:31:00,
2013-07-30 02:33:00,60.7,54.2,30.04,NNW,338,0.9,2.9,79,0.00,,,0.00,WUHU216HW,2013-07-30 06:33:00,
2013-07-30 02:34:00,60.7,54.2,30.04,NNW,338,0.9,2.9,79,0.00,,,0.00,WUHU216HW,2013-07-30 06:34:00,
2013-07-30 02:36:00,60.5,54.4,30.04,WSW,248,0.4,2.9,80,0.00,,,0.00,WUHU216HW,2013-07-30 06:36:00,
2013-07-30 02:38:00,60.5,54.4,30.04,WSW,248,1.1,2.9,80,0.00,,,0.00,WUHU216HW,2013-07-30 06:38:00,
2013-07-30 02:39:00,60.3,54.2,30.04,WSW,248,0.7,2.9,80,0.00,,,0.00,WUHU216HW,2013-07-30 06:39:00,
2013-07-30 02:43:00,60.3,54.2,30.04,WNW,293,1.6,1.8,80,0.00,,,0.00,WUHU216HW,2013-07-30 06:43:00,
2013-07-30 02:45:00,60.3,54.2,30.04,WNW,293,0.4,1.8,80,0.00,,,0.00,WUHU216HW,2013-07-30 06:45:00,
2013-07-30 02:48:00,60.3,54.2,30.05,SW,225,0.0,1.8,80,0.00,,,0.00,WUHU216HW,2013-07-30 06:48:00,
2013-07-30 02:49:00,60.3,54.2,30.05,SW,225,0.0,1.8,80,0.00,,,0.00,WUHU216HW,2013-07-30 06:49:00,
2013-07-30 02:50:00,60.5,54.4,30.05,West,270,2.5,2.5,80,0.00,,,0.00,WUHU216HW,2013-07-30 06:50:00,
2013-07-30 02:53:00,60.5,54.0,30.05,SW,225,0.0,2.5,79,0.00,,,0.00,WUHU216HW,2013-07-30 06:53:00,
2013-07-30 02:54:00,60.5,54.4,30.05,WSW,248,1.3,2.5,80,0.00,,,0.00,WUHU216HW,2013-07-30 06:54:00,
2013-07-30 02:55:00,60.5,54.4,30.05,WSW,248,1.3,2.5,80,0.00,,,0.00,WUHU216HW,2013-07-30 06:55:00,
2013-07-30 02:56:00,60.5,54.4,30.05,SW,225,1.8,2.5,80,0.00,,,0.00,WUHU216HW,2013-07-30 06:56:00,
2013-07-30 02:59:00,60.1,54.0,30.05,SSW,203,0.4,1.8,80,0.00,,,0.00,WUHU216HW,2013-07-30 06:59:00,
2013-07-30 03:00:00,60.1,54.0,30.05,South,180,0.0,1.8,80,0.00,,,0.00,WUHU216HW,2013-07-30 07:00:00,
2013-07-30 03:01:00,60.1,54.0,30.05,South,180,0.0,1.8,80,0.00,,,0.00,WUHU216HW,2013-07-30 07:01:00,
2013-07-30 03:02:00,60.1,54.0,30.04,South,180,0.0,1.8,80,0.00,,,0.00,WUHU216HW,2013-07-30 07:02:00,
2013-07-30 03:05:00,59.8,54.6,30.04,SW,225,1.6,2.5,83,0.00,,,0.00,WUHU216HW,2013-07-30 07:05:00,
2013-07-30 03:06:00,59.8,54.6,30.04,SW,225,1.6,2.5,83,0.00,,,0.00,WUHU216HW,2013-07-30 07:06:00,
2013-07-30 03:07:00,59.8,54.6,30.04,SSW,203,1.1,2.5,83,0.00,,,0.00,WUHU216HW,2013-07-30 07:07:00,
2013-07-30 03:11:00,59.6,54.5,30.05,SW,225,3.1,3.1,83,0.00,,,0.00,WUHU216HW,2013-07-30 07:11:00,
2013-07-30 03:12:00,59.8,54.6,30.05,West,270,2.2,3.1,83,0.00,,,0.00,WUHU216HW,2013-07-30 07:12:00,
2013-07-30 03:13:00,59.8,54.6,30.05,West,270,2.2,3.1,83,0.00,,,0.00,WUHU216HW,2013-07-30 07:13:00,
2013-07-30 03:14:00,59.8,54.6,30.05,WSW,248,2.7,3.1,83,0.00,,,0.00,WUHU216HW,2013-07-30 07:14:00,
2013-07-30 03:16:00,59.9,54.5,30.05,WSW,248,2.9,3.4,82,0.00,,,0.00,WUHU216HW,2013-07-30 07:16:00,
2013-07-30 03:18:00,60.1,54.6,30.05,WSW,248,1.8,3.4,82,0.00,,,0.00,WUHU216HW,2013-07-30 07:18:00,
2013-07-30 03:19:00,60.1,54.4,30.05,SSW,203,0.4,3.4,81,0.00,,,0.00,WUHU216HW,2013-07-30 07:19:00,
2013-07-30 03:21:00,60.1,54.4,30.05,West,270,2.7,3.4,81,0.00,,,0.00,WUHU216HW,2013-07-30 07:21:00,
2013-07-30 03:23:00,60.3,54.6,30.05,NW,315,0.9,3.4,81,0.00,,,0.00,WUHU216HW,2013-07-30 07:23:00,
2013-07-30 03:25:00,60.3,54.2,30.05,WNW,293,1.1,3.4,80,0.00,,,0.00,WUHU216HW,2013-07-30 07:25:00,
2013-07-30 03:26:00,60.5,54.4,30.05,West,270,0.7,2.7,80,0.00,,,0.00,WUHU216HW,2013-07-30 07:26:00,
2013-07-30 03:27:00,60.5,54.4,30.05,WNW,293,1.1,2.7,80,0.00,,,0.00,WUHU216HW,2013-07-30 07:27:00,
2013-07-30 03:28:00,60.7,54.5,30.05,South,180,0.0,2.7,80,0.00,,,0.00,WUHU216HW,2013-07-30 07:28:00,
2013-07-30 03:30:00,60.7,54.5,30.05,NW,315,0.4,2.7,80,0.00,,,0.00,WUHU216HW,2013-07-30 07:30:00,
2013-07-30 03:32:00,60.7,54.5,30.05,WNW,293,2.2,2.2,80,0.00,,,0.00,WUHU216HW,2013-07-30 07:32:00,
2013-07-30 03:33:00,60.7,54.5,30.05,West,270,2.5,2.9,80,0.00,,,0.00,WUHU216HW,2013-07-30 07:33:00,
2013-07-30 03:35:00,60.7,54.2,30.05,WNW,293,2.9,3.1,79,0.00,,,0.00,WUHU216HW,2013-07-30 07:35:00,
2013-07-30 03:36:00,60.7,54.2,30.05,WNW,293,2.9,3.1,79,0.00,,,0.00,WUHU216HW,2013-07-30 07:36:00,
2013-07-30 03:37:00,60.7,54.2,30.05,WNW,293,2.9,3.1,79,0.00,,,0.00,WUHU216HW,2013-07-30 07:37:00,
2013-07-30 03:38:00,60.7,54.2,30.05,WNW,293,3.4,3.4,79,0.00,,,0.00,WUHU216HW,2013-07-30 07:38:00,
2013-07-30 03:41:00,60.5,54.0,30.05,West,270,1.8,3.4,79,0.00,,,0.00,WUHU216HW,2013-07-30 07:41:00,
2013-07-30 03:42:00,60.5,54.0,30.05,WNW,293,2.2,3.4,79,0.00,,,0.00,WUHU216HW,2013-07-30 07:42:00,
2013-07-30 03:43:00,60.5,54.0,30.05,NW,315,2.9,3.4,79,0.00,,,0.00,WUHU216HW,2013-07-30 07:43:00,
2013-07-30 03:44:00,60.5,54.0,30.05,NW,315,2.9,3.4,79,0.00,,,0.00,WUHU216HW,2013-07-30 07:44:00,
2013-07-30 03:45:00,60.5,54.0,30.05,WNW,293,2.2,3.4,79,0.00,,,0.00,WUHU216HW,2013-07-30 07:45:00,
2013-07-30 03:47:00,60.5,54.0,30.05,West,270,2.2,3.4,79,0.00,,,0.00,WUHU216HW,2013-07-30 07:47:00,
2013-07-30 03:48:00,60.5,54.0,30.05,West,270,2.2,3.4,79,0.00,,,0.00,WUHU216HW,2013-07-30 07:48:00,
2013-07-30 03:49:00,60.3,53.8,30.05,WSW,248,2.5,3.4,79,0.00,,,0.00,WUHU216HW,2013-07-30 07:49:00,
2013-07-30 03:50:00,60.3,53.8,30.05,West,270,2.5,2.9,79,0.00,,,0.00,WUHU216HW,2013-07-30 07:50:00,
2013-07-30 03:51:00,60.3,53.8,30.05,West,270,1.6,2.9,79,0.00,,,0.00,WUHU216HW,2013-07-30 07:51:00,
2013-07-30 03:52:00,60.3,53.8,30.04,WSW,248,2.0,2.9,79,0.00,,,0.00,WUHU216HW,2013-07-30 07:52:00,
2013-07-30 03:53:00,60.3,53.8,30.04,West,270,1.8,2.5,79,0.00,,,0.00,WUHU216HW,2013-07-30 07:53:00,
2013-07-30 03:54:00,60.3,53.8,30.04,WNW,293,2.2,2.5,79,0.00,,,0.00,WUHU216HW,2013-07-30 07:54:00,
2013-07-30 03:55:00,60.3,53.8,30.04,WNW,293,1.1,2.5,79,0.00,,,0.00,WUHU216HW,2013-07-30 07:55:00,
2013-07-30 03:58:00,60.3,53.5,30.04,WNW,293,1.1,2.5,78,0.00,,,0.00,WUHU216HW,2013-07-30 07:58:00,
2013-07-30 04:00:00,60.3,53.5,30.04,West,270,1.1,2.2,78,0.00,,,0.00,WUHU216HW,2013-07-30 08:00:00,
2013-07-30 04:03:00,60.3,53.5,30.04,WNW,293,1.3,2.2,78,0.00,,,0.00,WUHU216HW,2013-07-30 08:03:00,
2013-07-30 04:04:00,60.3,53.5,30.04,WNW,293,1.3,2.2,78,0.00,,,0.00,WUHU216HW,2013-07-30 08:04:00,
2013-07-30 04:05:00,60.5,53.6,30.04,West,270,1.6,2.0,78,0.00,,,0.00,WUHU216HW,2013-07-30 08:05:00,
2013-07-30 04:06:00,60.5,53.6,30.04,WNW,293,2.5,2.5,78,0.00,,,0.00,WUHU216HW,2013-07-30 08:06:00,
2013-07-30 04:09:00,60.3,53.1,30.04,SW,225,1.8,2.5,77,0.00,,,0.00,WUHU216HW,2013-07-30 08:09:00,
2013-07-30 04:10:00,60.3,53.1,30.05,West,270,1.8,2.5,77,0.00,,,0.00,WUHU216HW,2013-07-30 08:10:00,
2013-07-30 04:11:00,60.3,53.1,30.05,West,270,1.8,2.5,77,0.00,,,0.00,WUHU216HW,2013-07-30 08:11:00,
2013-07-30 04:14:00,60.3,53.1,30.05,West,270,1.8,3.8,77,0.00,,,0.00,WUHU216HW,2013-07-30 08:14:00,
2013-07-30 04:15:00,60.3,53.1,30.05,West,270,1.8,3.8,77,0.00,,,0.00,WUHU216HW,2013-07-30 08:15:00,
2013-07-30 04:16:00,60.3,53.1,30.04,NW,315,2.0,3.8,77,0.00,,,0.00,WUHU216HW,2013-07-30 08:16:00,
2013-07-30 04:18:00,60.3,53.1,30.05,West,270,1.8,3.8,77,0.00,,,0.00,WUHU216HW,2013-07-30 08:18:00,
2013-07-30 04:19:00,60.3,53.1,30.05,West,270,1.1,3.8,77,0.00,,,0.00,WUHU216HW,2013-07-30 08:19:00,
2013-07-30 04:20:00,60.1,52.6,30.04,WNW,293,0.7,3.8,76,0.00,,,0.00,WUHU216HW,2013-07-30 08:20:00,
2013-07-30 04:22:00,60.3,52.7,30.04,NNW,338,0.0,2.2,76,0.00,,,0.00,WUHU216HW,2013-07-30 08:22:00,
2013-07-30 04:23:00,60.1,52.6,30.04,NNW,338,0.0,2.0,76,0.00,,,0.00,WUHU216HW,2013-07-30 08:23:00,
2013-07-30 04:24:00,60.1,52.9,30.04,NW,315,0.0,2.0,77,0.00,,,0.00,WUHU216HW,2013-07-30 08:24:00,
2013-07-30 04:26:00,60.1,52.9,30.04,North,0,0.4,1.8,77,0.00,,,0.00,WUHU216HW,2013-07-30 08:26:00,
2013-07-30 04:27:00,60.1,52.9,30.04,North,0,0.0,1.8,77,0.00,,,0.00,WUHU216HW,2013-07-30 08:27:00,
2013-07-30 04:29:00,60.1,53.3,30.04,SSE,158,0.9,0.9,78,0.00,,,0.00,WUHU216HW,2013-07-30 08:29:00,
2013-07-30 04:30:00,59.9,53.5,30.04,SSE,158,0.9,0.9,79,0.00,,,0.00,WUHU216HW,2013-07-30 08:30:00,
2013-07-30 04:32:00,59.8,53.3,30.04,SE,135,1.1,1.1,79,0.00,,,0.00,WUHU216HW,2013-07-30 08:32:00,
2013-07-30 04:34:00,59.0,52.9,30.05,SSE,158,2.2,2.2,80,0.00,,,0.00,WUHU216HW,2013-07-30 08:34:00,
2013-07-30 04:35:00,59.0,52.9,30.05,SSE,158,0.9,2.2,80,0.00,,,0.00,WUHU216HW,2013-07-30 08:35:00,
2013-07-30 04:36:00,58.7,52.9,30.05,SSE,158,2.9,2.9,81,0.00,,,0.00,WUHU216HW,2013-07-30 08:36:00,
2013-07-30 04:38:00,58.7,53.2,30.05,SSE,158,1.8,2.9,82,0.00,,,0.00,WUHU216HW,2013-07-30 08:38:00,
2013-07-30 04:39:00,58.3,53.2,30.05,SE,135,1.3,2.9,83,0.00,,,0.00,WUHU216HW,2013-07-30 08:39:00,
2013-07-30 04:40:00,58.3,53.2,30.05,South,180,0.4,2.9,83,0.00,,,0.00,WUHU216HW,2013-07-30 08:40:00,
2013-07-30 04:42:00,58.1,53.0,30.05,SSE,158,1.3,2.9,83,0.00,,,0.00,WUHU216HW,2013-07-30 08:42:00,
2013-07-30 04:43:00,58.1,53.0,30.05,SSE,158,1.1,2.9,83,0.00,,,0.00,WUHU216HW,2013-07-30 08:43:00,
2013-07-30 04:44:00,58.1,53.0,30.05,SSE,158,0.9,2.9,83,0.00,,,0.00,WUHU216HW,2013-07-30 08:44:00,
2013-07-30 04:45:00,58.1,53.0,30.05,SSE,158,0.9,2.9,83,0.00,,,0.00,WUHU216HW,2013-07-30 08:45:00,
2013-07-30 04:46:00,58.0,52.8,30.05,South,180,0.0,2.9,83,0.00,,,0.00,WUHU216HW,2013-07-30 08:46:00,
2013-07-30 04:49:00,58.1,53.0,30.05,South,180,0.0,1.3,83,0.00,,,0.00,WUHU216HW,2013-07-30 08:49:00,
2013-07-30 04:50:00,58.1,53.0,30.05,South,180,0.0,1.3,83,0.00,,,0.00,WUHU216HW,2013-07-30 08:50:00,
2013-07-30 04:53:00,58.1,53.0,30.05,South,180,0.0,1.1,83,0.00,,,0.00,WUHU216HW,2013-07-30 08:53:00,
2013-07-30 04:55:00,58.0,52.8,30.05,SW,225,0.0,0.0,83,0.00,,,0.00,WUHU216HW,2013-07-30 08:55:00,
2013-07-30 04:56:00,58.0,52.8,30.05,WNW,293,0.0,0.0,83,0.00,,,0.00,WUHU216HW,2013-07-30 08:56:00,
2013-07-30 04:57:00,58.1,53.0,30.05,NNW,338,0.0,0.0,83,0.00,,,0.00,WUHU216HW,2013-07-30 08:57:00,
2013-07-30 04:58:00,58.1,53.0,30.05,NNW,338,0.0,0.0,83,0.00,,,0.00,WUHU216HW,2013-07-30 08:58:00,
2013-07-30 05:00:00,58.1,53.0,30.05,North,0,0.0,0.0,83,0.00,,,0.00,WUHU216HW,2013-07-30 09:00:00,
2013-07-30 05:01:00,58.1,53.0,30.05,North,0,0.9,0.9,83,0.00,,,0.00,WUHU216HW,2013-07-30 09:01:00,
2013-07-30 05:02:00,58.1,53.0,30.05,NNW,338,1.1,1.1,83,0.00,,,0.00,WUHU216HW,2013-07-30 09:02:00,
2013-07-30 05:03:00,58.1,53.0,30.04,North,0,1.8,1.8,83,0.00,,,0.00,WUHU216HW,2013-07-30 09:03:00,
2013-07-30 05:06:00,58.1,52.7,30.05,NNW,338,1.3,1.8,82,0.00,,,0.00,WUHU216HW,2013-07-30 09:06:00,
2013-07-30 05:07:00,58.1,52.7,30.05,NNW,338,1.1,1.8,82,0.00,,,0.00,WUHU216HW,2013-07-30 09:07:00,
2013-07-30 05:08:00,58.1,52.7,30.04,NNW,338,1.1,1.8,82,0.00,,,0.00,WUHU216HW,2013-07-30 09:08:00,
2013-07-30 05:09:00,58.1,52.7,30.04,NNW,338,1.1,1.8,82,0.00,,,0.00,WUHU216HW,2013-07-30 09:09:00,
2013-07-30 05:12:00,58.0,52.5,30.05,NW,315,1.8,1.8,82,0.00,,,0.00,WUHU216HW,2013-07-30 09:12:00,
2013-07-30 05:13:00,58.0,52.2,30.04,NW,315,1.8,1.8,81,0.00,,,0.00,WUHU216HW,2013-07-30 09:13:00,
2013-07-30 05:14:00,58.0,52.2,30.04,NW,315,1.8,1.8,81,0.00,,,0.00,WUHU216HW,2013-07-30 09:14:00,
2013-07-30 05:15:00,58.0,52.2,30.05,NW,315,1.6,1.8,81,0.00,,,0.00,WUHU216HW,2013-07-30 09:15:00,
2013-07-30 05:17:00,58.0,52.2,30.04,NW,315,1.8,2.0,81,0.00,,,0.00,WUHU216HW,2013-07-30 09:17:00,
2013-07-30 05:19:00,57.8,52.0,30.05,NW,315,1.1,2.0,81,0.00,,,0.00,WUHU216HW,2013-07-30 09:19:00,
2013-07-30 05:20:00,57.8,52.0,30.05,NW,315,1.1,2.0,81,0.00,,,0.00,WUHU216HW,2013-07-30 09:20:00,
2013-07-30 05:21:00,57.8,52.0,30.05,NW,315,0.7,2.0,81,0.00,,,0.00,WUHU216HW,2013-07-30 09:21:00,
2013-07-30 05:24:00,57.6,51.9,30.05,WSW,248,0.0,2.0,81,0.00,,,0.00,WUHU216HW,2013-07-30 09:24:00,
2013-07-30 05:25:00,57.8,52.7,30.05,SSW,203,0.0,2.0,83,0.00,,,0.00,WUHU216HW,2013-07-30 09:25:00,
2013-07-30 05:27:00,57.2,52.4,30.05,West,270,1.6,1.8,84,0.00,,,0.00,WUHU216HW,2013-07-30 09:27:00,
2013-07-30 05:29:00,56.9,52.0,30.05,NW,315,2.2,2.2,84,0.00,,,0.00,WUHU216HW,2013-07-30 09:29:00,
2013-07-30 05:30:00,56.9,52.0,30.05,NW,315,2.0,2.2,84,0.00,,,0.00,WUHU216HW,2013-07-30 09:30:00,
2013-07-30 05:32:00,56.9,52.0,30.05,NW,315,2.2,2.2,84,0.00,,,0.00,WUHU216HW,2013-07-30 09:32:00,
2013-07-30 05:33:00,56.7,51.8,30.05,WNW,293,1.8,2.2,84,0.00,,,0.00,WUHU216HW,2013-07-30 09:33:00,
2013-07-30 05:34:00,56.7,51.8,30.05,NNW,338,1.3,2.2,84,0.00,,,0.00,WUHU216HW,2013-07-30 09:34:00,
2013-07-30 05:35:00,56.7,51.8,30.05,NNW,338,1.1,2.2,84,0.00,,,0.00,WUHU216HW,2013-07-30 09:35:00,
2013-07-30 05:37:00,56.7,51.8,30.06,NW,315,1.8,2.2,84,0.00,,,0.00,WUHU216HW,2013-07-30 09:37:00,
2013-07-30 05:39:00,56.5,51.7,30.05,West,270,2.5,2.5,84,0.00,,,0.00,WUHU216HW,2013-07-30 09:39:00,
2013-07-30 05:40:00,56.7,51.8,30.05,WNW,293,1.8,2.5,84,0.00,,,0.00,WUHU216HW,2013-07-30 09:40:00,
2013-07-30 05:42:00,56.7,51.8,30.06,NW,315,2.2,2.5,84,0.00,,,0.00,WUHU216HW,2013-07-30 09:42:00,
2013-07-30 05:44:00,56.7,51.8,30.06,NW,315,1.1,2.5,84,0.00,,,0.00,WUHU216HW,2013-07-30 09:44:00,
2013-07-30 05:46:00,56.9,52.0,30.06,WSW,248,1.8,2.5,84,0.00,,,0.00,WUHU216HW,2013-07-30 09:46:00,
2013-07-30 05:47:00,56.9,52.0,30.06,SSW,203,0.0,2.5,84,0.00,,,0.00,WUHU216HW,2013-07-30 09:47:00,
2013-07-30 05:48:00,56.9,52.0,30.06,SSW,203,0.0,2.2,84,0.00,,,0.00,WUHU216HW,2013-07-30 09:48:00,
2013-07-30 05:50:00,56.9,52.0,30.06,SSW,203,0.0,2.2,84,0.00,,,0.00,WUHU216HW,2013-07-30 09:50:00,
2013-07-30 05:52:00,56.5,51.7,30.06,SW,225,0.2,1.8,84,0.00,,,0.00,WUHU216HW,2013-07-30 09:52:00,
2013-07-30 05:53:00,56.5,51.7,30.06,SW,225,0.4,1.8,84,0.00,,,0.00,WUHU216HW,2013-07-30 09:53:00,
2013-07-30 05:54:00,56.5,51.7,30.06,SW,225,0.4,1.8,84,0.00,,,0.00,WUHU216HW,2013-07-30 09:54:00,
2013-07-30 05:57:00,56.2,51.7,30.06,SSW,203,1.1,1.1,85,0.00,,,0.00,WUHU216HW,2013-07-30 09:57:00,
2013-07-30 05:58:00,56.0,51.9,30.06,SSW,203,0.7,1.1,86,0.00,,,0.00,WUHU216HW,2013-07-30 09:58:00,
2013-07-30 05:59:00,56.0,51.9,30.06,SSW,203,0.7,1.1,86,0.00,,,0.00,WUHU216HW,2013-07-30 09:59:00,
2013-07-30 06:02:00,55.8,51.7,30.06,West,270,0.4,3.8,86,0.00,,,0.00,WUHU216HW,2013-07-30 10:02:00,
2013-07-30 06:03:00,55.8,51.7,30.06,West,270,0.4,3.8,86,0.00,,,0.00,WUHU216HW,2013-07-30 10:03:00,
2013-07-30 06:04:00,56.0,51.9,30.06,SSW,203,1.6,3.8,86,0.00,,,0.00,WUHU216HW,2013-07-30 10:04:00,
2013-07-30 06:07:00,56.0,51.9,30.06,SSW,203,0.7,3.8,86,0.00,,,0.00,WUHU216HW,2013-07-30 10:07:00,
2013-07-30 06:08:00,56.0,51.9,30.06,SSW,203,0.7,3.8,86,0.00,,,0.00,WUHU216HW,2013-07-30 10:08:00,
2013-07-30 06:09:00,56.0,51.9,30.06,SSW,203,0.7,3.8,86,0.00,,,0.00,WUHU216HW,2013-07-30 10:09:00,
2013-07-30 06:10:00,55.8,51.7,30.06,SW,225,0.7,3.8,86,0.00,,,0.00,WUHU216HW,2013-07-30 10:10:00,
2013-07-30 06:13:00,55.6,51.8,30.07,SW,225,3.1,3.1,87,0.00,,,0.00,WUHU216HW,2013-07-30 10:13:00,
2013-07-30 06:15:00,55.4,51.9,30.07,WSW,248,2.5,3.1,88,0.00,,,0.00,WUHU216HW,2013-07-30 10:15:00,
2013-07-30 06:18:00,55.6,52.1,30.07,WSW,248,1.8,3.1,88,0.00,,,0.00,WUHU216HW,2013-07-30 10:18:00,
2013-07-30 06:20:00,55.6,52.1,30.07,WNW,293,1.1,3.1,88,0.00,,,0.00,WUHU216HW,2013-07-30 10:20:00,
2013-07-30 06:21:00,55.6,52.1,30.07,WNW,293,1.1,3.1,88,0.00,,,0.00,WUHU216HW,2013-07-30 10:21:00,
2013-07-30 06:24:00,55.8,51.9,30.07,West,270,1.3,2.5,87,0.00,,,0.00,WUHU216HW,2013-07-30 10:24:00,
2013-07-30 06:25:00,55.8,51.9,30.07,West,270,1.3,2.2,87,0.00,,,0.00,WUHU216HW,2013-07-30 10:25:00,
2013-07-30 06:26:00,55.8,51.9,30.07,West,270,1.3,2.2,87,0.00,,,0.00,WUHU216HW,2013-07-30 10:26:00,
2013-07-30 06:30:00,56.2,52.0,30.08,WNW,293,1.6,2.5,86,0.00,,,0.00,WUHU216HW,2013-07-30 10:30:00,
2013-07-30 06:31:00,56.2,52.0,30.07,WSW,248,0.9,2.5,86,0.00,,,0.00,WUHU216HW,2013-07-30 10:31:00,
2013-07-30 06:32:00,56.2,52.0,30.07,SW,225,0.0,2.5,86,0.00,,,0.00,WUHU216HW,2013-07-30 10:32:00,
2013-07-30 06:36:00,56.3,52.2,30.07,WNW,293,1.6,2.5,86,0.00,,,0.00,WUHU216HW,2013-07-30 10:36:00,
2013-07-30 06:37:00,56.3,52.2,30.07,WNW,293,1.6,2.5,86,0.00,,,0.00,WUHU216HW,2013-07-30 10:37:00,
2013-07-30 06:38:00,56.3,52.2,30.07,WNW,293,1.8,2.5,86,0.00,,,0.00,WUHU216HW,2013-07-30 10:38:00,
2013-07-30 06:42:00,56.3,52.2,30.08,West,270,2.9,2.9,86,0.00,,,0.00,WUHU216HW,2013-07-30 10:42:00,
2013-07-30 06:43:00,56.3,52.2,30.08,West,270,2.9,2.9,86,0.00,,,0.00,WUHU216HW,2013-07-30 10:43:00,
2013-07-30 06:44:00,56.5,52.4,30.08,WNW,293,1.3,2.9,86,0.00,,,0.00,WUHU216HW,2013-07-30 10:44:00,
2013-07-30 06:45:00,56.5,52.4,30.08,WSW,248,1.6,2.9,86,0.00,,,0.00,WUHU216HW,2013-07-30 10:45:00,
2013-07-30 06:48:00,56.5,52.0,30.08,WSW,248,0.0,2.9,85,0.00,,,0.00,WUHU216HW,2013-07-30 10:48:00,
2013-07-30 06:49:00,56.5,52.0,30.08,WSW,248,1.1,2.9,85,0.00,,,0.00,WUHU216HW,2013-07-30 10:49:00,
2013-07-30 06:50:00,56.5,52.0,30.08,WSW,248,1.1,2.9,85,0.00,,,0.00,WUHU216HW,2013-07-30 10:50:00,
2013-07-30 06:51:00,56.7,52.2,30.08,West,270,1.1,2.9,85,0.00,,,0.00,WUHU216HW,2013-07-30 10:51:00,
2013-07-30 06:54:00,56.7,52.2,30.08,West,270,1.3,1.8,85,0.00,,,0.00,WUHU216HW,2013-07-30 10:54:00,
2013-07-30 06:56:00,56.9,52.4,30.08,SSE,158,0.4,1.8,85,0.00,,,0.00,WUHU216HW,2013-07-30 10:56:00,
2013-07-30 06:58:00,56.9,52.4,30.08,South,180,0.2,1.8,85,0.00,,,0.00,WUHU216HW,2013-07-30 10:58:00,
2013-07-30 06:59:00,56.7,52.2,30.08,SSE,158,0.2,1.8,85,0.00,,,0.00,WUHU216HW,2013-07-30 10:59:00,
2013-07-30 07:00:00,56.5,52.0,30.08,SSE,158,0.4,1.8,85,0.00,,,0.00,WUHU216HW,2013-07-30 11:00:00,
2013-07-30 07:01:00,56.5,52.0,30.08,SW,225,0.0,1.8,85,0.00,,,0.00,WUHU216HW,2013-07-30 11:01:00,
2013-07-30 07:02:00,56.5,52.0,30.08,SW,225,0.0,1.8,85,0.00,,,0.00,WUHU216HW,2013-07-30 11:02:00,
2013-07-30 07:04:00,56.5,52.4,30.08,SSW,203,1.1,1.1,86,0.00,,,0.00,WUHU216HW,2013-07-30 11:04:00,
2013-07-30 07:05:00,56.5,52.4,30.08,South,180,1.1,1.1,86,0.00,,,0.00,WUHU216HW,2013-07-30 11:05:00,
2013-07-30 07:07:00,56.5,52.7,30.08,SW,225,1.1,1.1,87,0.00,,,0.00,WUHU216HW,2013-07-30 11:07:00,
2013-07-30 07:10:00,56.5,53.0,30.08,SSW,203,0.2,1.1,88,0.00,,,0.00,WUHU216HW,2013-07-30 11:10:00,
2013-07-30 07:11:00,56.5,53.0,30.08,South,180,0.2,1.1,88,0.00,,,0.00,WUHU216HW,2013-07-30 11:11:00,
2013-07-30 07:12:00,56.5,53.0,30.08,SW,225,0.2,1.1,88,0.00,,,0.00,WUHU216HW,2013-07-30 11:12:00,
2013-07-30 07:13:00,56.7,53.2,30.08,WSW,248,0.9,1.1,88,0.00,,,0.00,WUHU216HW,2013-07-30 11:13:00,
2013-07-30 07:16:00,56.9,53.4,30.09,SW,225,1.1,1.1,88,0.00,,,0.00,WUHU216HW,2013-07-30 11:16:00,
2013-07-30 07:17:00,57.1,53.6,30.09,SW,225,1.1,1.1,88,0.00,,,0.00,WUHU216HW,2013-07-30 11:17:00,
2013-07-30 07:19:00,57.1,53.2,30.09,SW,225,0.9,1.1,87,0.00,,,0.00,WUHU216HW,2013-07-30 11:19:00,
2013-07-30 07:21:00,57.2,53.7,30.09,SW,225,1.1,1.1,88,0.00,,,0.00,WUHU216HW,2013-07-30 11:21:00,
2013-07-30 07:22:00,57.2,53.7,30.09,SW,225,1.1,1.1,88,0.00,,,0.00,WUHU216HW,2013-07-30 11:22:00,
2013-07-30 07:24:00,57.6,54.1,30.08,SSW,203,1.1,1.1,88,0.00,,,0.00,WUHU216HW,2013-07-30 11:24:00,
2013-07-30 07:25:00,57.6,54.1,30.08,SSW,203,1.1,1.1,88,0.00,,,0.00,WUHU216HW,2013-07-30 11:25:00,
2013-07-30 07:27:00,57.8,53.9,30.08,South,180,1.1,1.1,87,0.00,,,0.00,WUHU216HW,2013-07-30 11:27:00,
2013-07-30 07:28:00,57.6,53.7,30.08,SSW,203,0.9,1.1,87,0.00,,,0.00,WUHU216HW,2013-07-30 11:28:00,
2013-07-30 07:30:00,57.8,54.3,30.08,SSW,203,1.3,1.3,88,0.00,,,0.00,WUHU216HW,2013-07-30 11:30:00,
2013-07-30 07:33:00,58.1,54.6,30.08,SW,225,1.6,1.6,88,0.00,,,0.00,WUHU216HW,2013-07-30 11:33:00,
2013-07-30 07:34:00,58.1,54.6,30.08,SW,225,1.6,1.6,88,0.00,,,0.00,WUHU216HW,2013-07-30 11:34:00,
2013-07-30 07:35:00,58.1,54.3,30.09,WSW,248,1.1,1.6,87,0.00,,,0.00,WUHU216HW,2013-07-30 11:35:00,
2013-07-30 07:36:00,58.1,54.3,30.09,WSW,248,1.1,1.6,87,0.00,,,0.00,WUHU216HW,2013-07-30 11:36:00,
2013-07-30 07:39:00,58.3,54.5,30.09,SW,225,2.0,2.0,87,0.00,,,0.00,WUHU216HW,2013-07-30 11:39:00,
2013-07-30 07:40:00,58.3,54.5,30.09,SSW,203,1.3,2.0,87,0.00,,,0.00,WUHU216HW,2013-07-30 11:40:00,
2013-07-30 07:41:00,58.3,54.5,30.09,SSW,203,1.3,2.0,87,0.00,,,0.00,WUHU216HW,2013-07-30 11:41:00,
2013-07-30 07:42:00,58.5,54.6,30.09,SSW,203,1.1,2.0,87,0.00,,,0.00,WUHU216HW,2013-07-30 11:42:00,
2013-07-30 07:45:00,58.7,54.8,30.09,SSW,203,2.0,2.0,87,0.00,,,0.00,WUHU216HW,2013-07-30 11:45:00,
2013-07-30 07:46:00,58.7,54.8,30.09,SW,225,1.6,2.0,87,0.00,,,0.00,WUHU216HW,2013-07-30 11:46:00,
2013-07-30 07:47:00,58.7,54.8,30.09,SW,225,1.6,2.0,87,0.00,,,0.00,WUHU216HW,2013-07-30 11:47:00,
2013-07-30 07:50:00,59.0,55.2,30.09,SW,225,2.2,2.2,87,0.00,,,0.00,WUHU216HW,2013-07-30 11:50:00,
2013-07-30 07:52:00,59.0,55.2,30.09,WSW,248,2.9,2.9,87,0.00,,,0.00,WUHU216HW,2013-07-30 11:52:00,
2013-07-30 07:53:00,59.0,54.9,30.09,SW,225,2.0,2.9,86,0.00,,,0.00,WUHU216HW,2013-07-30 11:53:00,
2013-07-30 07:55:00,59.4,55.3,30.09,WSW,248,3.6,3.8,86,0.00,,,0.00,WUHU216HW,2013-07-30 11:55:00,
2013-07-30 07:57:00,59.4,55.3,30.09,SSW,203,2.5,3.8,86,0.00,,,0.00,WUHU216HW,2013-07-30 11:57:00,
2013-07-30 07:58:00,59.4,55.3,30.09,SW,225,1.8,3.8,86,0.00,,,0.00,WUHU216HW,2013-07-30 11:58:00,
2013-07-30 07:59:00,59.4,55.3,30.09,SW,225,1.8,3.8,86,0.00,,,0.00,WUHU216HW,2013-07-30 11:59:00,
2013-07-30 08:02:00,59.8,55.6,30.09,WSW,248,1.6,3.8,86,0.00,,,0.00,WUHU216HW,2013-07-30 12:02:00,
2013-07-30 08:04:00,59.9,55.4,30.09,WSW,248,2.5,3.8,85,0.00,,,0.00,WUHU216HW,2013-07-30 12:04:00,
2013-07-30 08:05:00,60.1,55.6,30.10,SSW,203,1.3,3.6,85,0.00,,,0.00,WUHU216HW,2013-07-30 12:05:00,
2013-07-30 08:08:00,60.3,55.4,30.09,SW,225,1.8,3.4,84,0.00,,,0.00,WUHU216HW,2013-07-30 12:08:00,
2013-07-30 08:09:00,60.5,55.6,30.09,SSW,203,1.6,3.4,84,0.00,,,0.00,WUHU216HW,2013-07-30 12:09:00,
2013-07-30 08:10:00,60.5,55.4,30.09,SSW,203,2.7,3.4,83,0.00,,,0.00,WUHU216HW,2013-07-30 12:10:00,
2013-07-30 08:13:00,60.5,55.4,30.09,SW,225,3.4,3.4,83,0.00,,,0.00,WUHU216HW,2013-07-30 12:13:00,
2013-07-30 08:15:00,60.7,55.5,30.09,SW,225,2.9,3.4,83,0.00,,,0.00,WUHU216HW,2013-07-30 12:15:00,
2013-07-30 08:16:00,60.8,55.7,30.09,WSW,248,4.7,4.7,83,0.00,,,0.00,WUHU216HW,2013-07-30 12:16:00,
2013-07-30 08:18:00,60.8,55.7,30.09,WSW,248,3.4,4.7,83,0.00,,,0.00,WUHU216HW,2013-07-30 12:18:00,
2013-07-30 08:19:00,61.2,56.1,30.09,SW,225,3.6,4.7,83,0.00,,,0.00,WUHU216HW,2013-07-30 12:19:00,
2013-07-30 08:20:00,61.0,55.9,30.09,SW,225,2.5,4.7,83,0.00,,,0.00,WUHU216HW,2013-07-30 12:20:00,
2013-07-30 08:22:00,61.4,55.9,30.09,SW,225,2.5,4.7,82,0.00,,,0.00,WUHU216HW,2013-07-30 12:22:00,
2013-07-30 08:23:00,61.4,55.9,30.09,SW,225,2.5,4.7,82,0.00,,,0.00,WUHU216HW,2013-07-30 12:23:00,
2013-07-30 08:24:00,61.6,56.3,30.09,WSW,248,3.1,4.7,83,0.00,,,0.00,WUHU216HW,2013-07-30 12:24:00,
2013-07-30 08:26:00,61.7,56.5,30.09,SSW,203,1.1,4.7,83,0.00,,,0.00,WUHU216HW,2013-07-30 12:26:00,
2013-07-30 08:28:00,61.9,56.1,30.09,SW,225,4.0,4.0,81,0.00,,,0.00,WUHU216HW,2013-07-30 12:28:00,
2013-07-30 08:29:00,62.3,56.3,30.09,SSW,203,1.1,4.0,81,0.00,,,0.00,WUHU216HW,2013-07-30 12:29:00,
2013-07-30 08:30:00,62.3,56.3,30.09,SSW,203,1.1,4.0,81,0.00,,,0.00,WUHU216HW,2013-07-30 12:30:00,
2013-07-30 08:31:00,62.5,56.5,30.09,SW,225,1.8,4.0,81,0.00,,,0.00,WUHU216HW,2013-07-30 12:31:00,
2013-07-30 08:33:00,62.8,56.5,30.09,SW,225,2.0,4.0,80,0.00,,,0.00,WUHU216HW,2013-07-30 12:33:00,
2013-07-30 08:34:00,62.8,56.5,30.09,SW,225,2.0,4.0,80,0.00,,,0.00,WUHU216HW,2013-07-30 12:34:00,
2013-07-30 08:35:00,63.0,56.7,30.09,SSW,203,1.3,4.0,80,0.00,,,0.00,WUHU216HW,2013-07-30 12:35:00,
2013-07-30 08:36:00,63.2,56.9,30.09,WSW,248,2.5,4.0,80,0.00,,,0.00,WUHU216HW,2013-07-30 12:36:00,
2013-07-30 08:37:00,63.2,56.9,30.09,WSW,248,2.5,4.0,80,0.00,,,0.00,WUHU216HW,2013-07-30 12:37:00,
2013-07-30 08:39:00,63.4,56.3,30.09,WSW,248,3.4,3.4,78,0.00,,,0.00,WUHU216HW,2013-07-30 12:39:00,
2013-07-30 08:41:00,63.7,57.1,30.09,SW,225,1.6,3.4,79,0.00,,,0.00,WUHU216HW,2013-07-30 12:41:00,
2013-07-30 08:43:00,64.1,57.1,30.09,SW,225,1.6,3.4,78,0.00,,,0.00,WUHU216HW,2013-07-30 12:43:00,
2013-07-30 08:44:00,64.1,57.1,30.09,WSW,248,1.8,3.4,78,0.00,,,0.00,WUHU216HW,2013-07-30 12:44:00,
2013-07-30 08:45:00,64.3,56.9,30.09,WSW,248,1.8,3.4,77,0.00,,,0.00,WUHU216HW,2013-07-30 12:45:00,
2013-07-30 08:46:00,64.3,56.9,30.09,WSW,248,1.1,3.4,77,0.00,,,0.00,WUHU216HW,2013-07-30 12:46:00,
2013-07-30 08:48:00,64.6,57.3,30.09,West,270,2.2,2.5,77,0.00,,,0.00,WUHU216HW,2013-07-30 12:48:00,
2013-07-30 08:49:00,64.8,57.4,30.09,West,270,1.3,2.2,77,0.00,,,0.00,WUHU216HW,2013-07-30 12:49:00,
2013-07-30 08:50:00,64.8,57.4,30.09,WNW,293,1.1,2.2,77,0.00,,,0.00,WUHU216HW,2013-07-30 12:50:00,
2013-07-30 08:52:00,65.2,57.1,30.09,SW,225,1.8,2.5,75,0.00,,,0.00,WUHU216HW,2013-07-30 12:52:00,
2013-07-30 08:54:00,65.2,57.4,30.09,West,270,1.6,2.5,76,0.00,,,0.00,WUHU216HW,2013-07-30 12:54:00,
2013-07-30 08:55:00,65.3,57.6,30.09,SW,225,2.2,2.5,76,0.00,,,0.00,WUHU216HW,2013-07-30 12:55:00,
2013-07-30 08:56:00,65.5,57.8,30.09,West,270,2.7,2.7,76,0.00,,,0.00,WUHU216HW,2013-07-30 12:56:00,
2013-07-30 08:57:00,65.9,58.1,30.09,WSW,248,2.0,2.7,76,0.00,,,0.00,WUHU216HW,2013-07-30 12:57:00,
2013-07-30 08:58:00,65.9,58.1,30.09,SW,225,2.5,2.7,76,0.00,,,0.00,WUHU216HW,2013-07-30 12:58:00,
2013-07-30 09:00:00,66.2,57.7,30.09,SW,225,1.6,2.7,74,0.00,,,0.00,WUHU216HW,2013-07-30 13:00:00,
2013-07-30 09:01:00,66.4,58.2,30.09,SW,225,2.5,2.7,75,0.00,,,0.00,WUHU216HW,2013-07-30 13:01:00,
2013-07-30 09:02:00,66.4,57.9,30.09,WSW,248,1.1,2.7,74,0.00,,,0.00,WUHU216HW,2013-07-30 13:02:00,
2013-07-30 09:03:00,66.6,57.7,30.09,SW,225,2.2,2.7,73,0.00,,,0.00,WUHU216HW,2013-07-30 13:03:00,
2013-07-30 09:04:00,66.6,58.1,30.09,SW,225,1.1,2.7,74,0.00,,,0.00,WUHU216HW,2013-07-30 13:04:00,
2013-07-30 09:06:00,66.8,58.2,30.09,SW,225,1.8,2.5,74,0.00,,,0.00,WUHU216HW,2013-07-30 13:06:00,
2013-07-30 09:08:00,66.8,58.2,30.09,SW,225,1.1,2.5,74,0.00,,,0.00,WUHU216HW,2013-07-30 13:08:00,
2013-07-30 09:10:00,66.8,57.1,30.09,SW,225,2.2,3.4,71,0.00,,,0.00,WUHU216HW,2013-07-30 13:10:00,
2013-07-30 09:11:00,66.8,57.4,30.09,SSW,203,2.0,3.4,72,0.00,,,0.00,WUHU216HW,2013-07-30 13:11:00,
2013-07-30 09:13:00,67.0,58.4,30.09,SW,225,2.5,3.4,74,0.00,,,0.00,WUHU216HW,2013-07-30 13:13:00,
2013-07-30 09:14:00,67.0,58.4,30.09,SW,225,2.5,3.4,74,0.00,,,0.00,WUHU216HW,2013-07-30 13:14:00,
2013-07-30 09:15:00,67.0,57.6,30.09,WSW,248,1.6,3.4,72,0.00,,,0.00,WUHU216HW,2013-07-30 13:15:00,
2013-07-30 09:16:00,67.0,57.2,30.09,SSW,203,2.5,3.4,71,0.00,,,0.00,WUHU216HW,2013-07-30 13:16:00,
2013-07-30 09:19:00,67.3,58.0,30.09,WSW,248,2.7,2.7,72,0.00,,,0.00,WUHU216HW,2013-07-30 13:19:00,
2013-07-30 09:20:00,67.3,58.0,30.09,WSW,248,2.0,2.7,72,0.00,,,0.00,WUHU216HW,2013-07-30 13:20:00,
2013-07-30 09:21:00,67.7,59.1,30.09,SW,225,2.0,2.7,74,0.00,,,0.00,WUHU216HW,2013-07-30 13:21:00,
2013-07-30 09:22:00,67.7,59.1,30.09,SW,225,2.0,2.7,74,0.00,,,0.00,WUHU216HW,2013-07-30 13:22:00,
2013-07-30 09:24:00,68.0,58.7,30.09,WSW,248,2.2,2.7,72,0.00,,,0.00,WUHU216HW,2013-07-30 13:24:00,
2013-07-30 09:25:00,68.2,59.2,30.09,SW,225,1.3,2.7,73,0.00,,,0.00,WUHU216HW,2013-07-30 13:25:00,
2013-07-30 09:27:00,68.4,59.8,30.09,WSW,248,1.3,2.7,74,0.00,,,0.00,WUHU216HW,2013-07-30 13:27:00,
2013-07-30 09:29:00,68.9,60.0,30.09,South,180,1.6,2.2,73,0.00,,,0.00,WUHU216HW,2013-07-30 13:29:00,
2013-07-30 09:30:00,68.9,60.0,30.09,South,180,1.6,2.2,73,0.00,,,0.00,WUHU216HW,2013-07-30 13:30:00,
2013-07-30 09:31:00,69.1,59.0,30.09,SSW,203,1.6,2.2,70,0.00,,,0.00,WUHU216HW,2013-07-30 13:31:00,
2013-07-30 09:32:00,69.1,59.0,30.09,SSW,203,1.6,2.2,70,0.00,,,0.00,WUHU216HW,2013-07-30 13:32:00,
2013-07-30 09:34:00,69.3,58.7,30.09,WSW,248,3.8,3.8,69,0.00,,,0.00,WUHU216HW,2013-07-30 13:34:00,
2013-07-30 09:35:00,69.5,59.2,30.09,WSW,248,2.2,3.8,70,0.00,,,0.00,WUHU216HW,2013-07-30 13:35:00,
2013-07-30 09:36:00,69.5,60.0,30.09,SSW,203,1.8,3.8,72,0.00,,,0.00,WUHU216HW,2013-07-30 13:36:00,
2013-07-30 09:37:00,69.5,60.0,30.09,SSW,203,1.8,3.8,72,0.00,,,0.00,WUHU216HW,2013-07-30 13:37:00,
2013-07-30 09:39:00,69.8,59.6,30.09,SSW,203,2.0,4.0,70,0.00,,,0.00,WUHU216HW,2013-07-30 13:39:00,
2013-07-30 09:40:00,69.8,59.6,30.09,SSW,203,2.0,4.0,70,0.00,,,0.00,WUHU216HW,2013-07-30 13:40:00,
2013-07-30 09:41:00,70.0,59.8,30.09,SSW,203,1.1,4.0,70,0.00,,,0.00,WUHU216HW,2013-07-30 13:41:00,
2013-07-30 09:42:00,70.0,58.2,30.09,SSW,203,2.5,4.0,66,0.00,,,0.00,WUHU216HW,2013-07-30 13:42:00,
2013-07-30 09:45:00,70.4,59.3,30.08,SSW,203,1.1,4.9,68,0.00,,,0.00,WUHU216HW,2013-07-30 13:45:00,
2013-07-30 09:46:00,70.4,59.3,30.08,SSW,203,1.1,4.9,68,0.00,,,0.00,WUHU216HW,2013-07-30 13:46:00,
2013-07-30 09:47:00,70.4,58.9,30.08,SW,225,3.4,4.9,67,0.00,,,0.00,WUHU216HW,2013-07-30 13:47:00,
2013-07-30 09:49:00,70.6,59.5,30.09,SSW,203,2.7,4.9,68,0.00,,,0.00,WUHU216HW,2013-07-30 13:49:00,
2013-07-30 09:51:00,70.6,59.1,30.08,South,180,2.2,4.9,67,0.00,,,0.00,WUHU216HW,2013-07-30 13:51:00,
2013-07-30 09:53:00,70.4,58.9,30.08,South,180,2.9,3.4,67,0.00,,,0.00,WUHU216HW,2013-07-30 13:53:00,
2013-07-30 09:54:00,70.4,58.4,30.08,SSW,203,1.1,3.4,66,0.00,,,0.00,WUHU216HW,2013-07-30 13:54:00,
2013-07-30 09:56:00,70.4,58.1,30.08,SSW,203,2.0,3.4,65,0.00,,,0.00,WUHU216HW,2013-07-30 13:56:00,
2013-07-30 09:58:00,70.4,58.1,30.08,SSE,158,1.3,3.4,65,0.00,,,0.00,WUHU216HW,2013-07-30 13:58:00,
2013-07-30 09:59:00,70.4,58.4,30.08,SW,225,2.7,3.4,66,0.00,,,0.00,WUHU216HW,2013-07-30 13:59:00,
2013-07-30 10:01:00,70.6,59.1,30.08,SSW,203,2.0,2.9,67,0.00,,,0.00,WUHU216HW,2013-07-30 14:01:00,
2013-07-30 10:03:00,70.6,58.6,30.08,SSW,203,2.2,2.9,66,0.00,,,0.00,WUHU216HW,2013-07-30 14:03:00,
2013-07-30 10:04:00,70.6,57.3,30.08,SW,225,2.5,2.7,63,0.00,,,0.00,WUHU216HW,2013-07-30 14:04:00,
2013-07-30 10:05:00,70.6,58.6,30.08,SW,225,2.2,2.7,66,0.00,,,0.00,WUHU216HW,2013-07-30 14:05:00,
2013-07-30 10:07:00,70.7,58.0,30.08,SW,225,1.8,2.7,64,0.00,,,0.00,WUHU216HW,2013-07-30 14:07:00,
2013-07-30 10:08:00,70.9,58.5,30.08,SW,225,1.6,2.5,65,0.00,,,0.00,WUHU216HW,2013-07-30 14:08:00,
2013-07-30 10:09:00,70.9,58.5,30.08,SW,225,1.6,2.5,65,0.00,,,0.00,WUHU216HW,2013-07-30 14:09:00,
2013-07-30 10:10:00,70.9,58.2,30.08,SSW,203,2.2,2.5,64,0.00,,,0.00,WUHU216HW,2013-07-30 14:10:00,
2013-07-30 10:12:00,71.1,57.0,30.08,SSW,203,2.9,2.9,61,0.00,,,0.00,WUHU216HW,2013-07-30 14:12:00,
2013-07-30 10:14:00,71.3,58.4,30.08,SW,225,2.7,2.9,64,0.00,,,0.00,WUHU216HW,2013-07-30 14:14:00,
2013-07-30 10:15:00,71.5,58.6,30.08,West,270,2.5,4.9,64,0.00,,,0.00,WUHU216HW,2013-07-30 14:15:00,
2013-07-30 10:18:00,71.8,59.0,30.08,WSW,248,3.8,4.9,64,0.00,,,0.00,WUHU216HW,2013-07-30 14:18:00,
2013-07-30 10:19:00,72.2,58.9,30.08,SW,225,3.4,4.9,63,0.00,,,0.00,WUHU216HW,2013-07-30 14:19:00,
2013-07-30 10:20:00,72.2,58.9,30.08,SW,225,3.4,4.9,63,0.00,,,0.00,WUHU216HW,2013-07-30 14:20:00,
2013-07-30 10:21:00,72.2,59.3,30.08,WSW,248,1.8,4.9,64,0.00,,,0.00,WUHU216HW,2013-07-30 14:21:00,
2013-07-30 10:24:00,72.4,59.5,30.08,South,180,0.7,4.9,64,0.00,,,0.00,WUHU216HW,2013-07-30 14:24:00,
2013-07-30 10:25:00,72.4,59.1,30.08,SW,225,1.6,3.8,63,0.00,,,0.00,WUHU216HW,2013-07-30 14:25:00,
2013-07-30 10:27:00,72.4,59.1,30.08,South,180,1.8,3.8,63,0.00,,,0.00,WUHU216HW,2013-07-30 14:27:00,
2013-07-30 10:29:00,72.7,59.0,30.08,SW,225,1.8,3.8,62,0.00,,,0.00,WUHU216HW,2013-07-30 14:29:00,
2013-07-30 10:30:00,72.7,58.5,30.08,SSE,158,1.6,3.8,61,0.00,,,0.00,WUHU216HW,2013-07-30 14:30:00,
2013-07-30 10:32:00,72.7,58.1,30.08,SW,225,2.2,3.8,60,0.00,,,0.00,WUHU216HW,2013-07-30 14:32:00,
2013-07-30 10:33:00,72.7,58.1,30.08,WSW,248,1.3,3.8,60,0.00,,,0.00,WUHU216HW,2013-07-30 14:33:00,
2013-07-30 10:34:00,72.7,59.0,30.08,WSW,248,2.5,3.8,62,0.00,,,0.00,WUHU216HW,2013-07-30 14:34:00,
2013-07-30 10:36:00,73.1,58.8,30.08,West,270,2.9,3.8,61,0.00,,,0.00,WUHU216HW,2013-07-30 14:36:00,
2013-07-30 10:37:00,73.4,60.0,30.08,South,180,2.2,3.8,63,0.00,,,0.00,WUHU216HW,2013-07-30 14:37:00,
2013-07-30 10:39:00,73.6,58.3,30.08,WSW,248,2.0,2.9,59,0.00,,,0.00,WUHU216HW,2013-07-30 14:39:00,
2013-07-30 10:41:00,73.8,58.5,30.08,WSW,248,1.6,2.9,59,0.00,,,0.00,WUHU216HW,2013-07-30 14:41:00,
2013-07-30 10:42:00,73.8,58.1,30.08,WSW,248,3.8,3.8,58,0.00,,,0.00,WUHU216HW,2013-07-30 14:42:00,
2013-07-30 10:44:00,74.0,58.2,30.08,SW,225,1.8,3.8,58,0.00,,,0.00,WUHU216HW,2013-07-30 14:44:00,
2013-07-30 10:45:00,74.0,58.2,30.08,SW,225,1.8,3.8,58,0.00,,,0.00,WUHU216HW,2013-07-30 14:45:00,
2013-07-30 10:46:00,74.2,58.9,30.08,SSW,203,1.8,3.8,59,0.00,,,0.00,WUHU216HW,2013-07-30 14:46:00,
2013-07-30 10:48:00,74.2,60.8,30.08,SW,225,2.5,3.8,63,0.00,,,0.00,WUHU216HW,2013-07-30 14:48:00,
2013-07-30 10:50:00,74.2,59.4,30.08,SSW,203,2.7,3.8,60,0.00,,,0.00,WUHU216HW,2013-07-30 14:50:00,
2013-07-30 10:52:00,74.3,60.0,30.08,SSW,203,2.9,3.6,61,0.00,,,0.00,WUHU216HW,2013-07-30 14:52:00,
2013-07-30 10:53:00,74.7,59.9,30.08,SW,225,1.8,4.7,60,0.00,,,0.00,WUHU216HW,2013-07-30 14:53:00,
2013-07-30 10:55:00,74.9,59.1,30.08,SW,225,1.3,4.7,58,0.00,,,0.00,WUHU216HW,2013-07-30 14:55:00,
2013-07-30 10:56:00,74.9,59.1,30.08,SSW,203,1.1,4.7,58,0.00,,,0.00,WUHU216HW,2013-07-30 14:56:00,
2013-07-30 10:59:00,75.2,59.5,30.08,SSW,203,1.8,4.7,58,0.00,,,0.00,WUHU216HW,2013-07-30 14:59:00,
2013-07-30 11:00:00,75.2,58.5,30.08,SW,225,4.7,4.7,56,0.00,,,0.00,WUHU216HW,2013-07-30 15:00:00,
2013-07-30 11:01:00,75.2,59.0,30.08,NW,315,2.2,4.7,57,0.00,,,0.00,WUHU216HW,2013-07-30 15:01:00,
2013-07-30 11:02:00,75.2,59.0,30.08,NW,315,1.3,4.7,57,0.00,,,0.00,WUHU216HW,2013-07-30 15:02:00,
2013-07-30 11:04:00,75.6,59.3,30.08,WSW,248,5.4,5.4,57,0.00,,,0.00,WUHU216HW,2013-07-30 15:04:00,
2013-07-30 11:05:00,75.8,58.4,30.08,South,180,2.0,5.4,55,0.00,,,0.00,WUHU216HW,2013-07-30 15:05:00,
2013-07-30 11:06:00,75.6,58.3,30.08,SW,225,3.4,5.4,55,0.00,,,0.00,WUHU216HW,2013-07-30 15:06:00,
2013-07-30 11:07:00,75.6,59.3,30.08,SW,225,1.6,5.4,57,0.00,,,0.00,WUHU216HW,2013-07-30 15:07:00,
2013-07-30 11:10:00,76.0,59.6,30.08,SSW,203,1.3,5.4,57,0.00,,,0.00,WUHU216HW,2013-07-30 15:10:00,
2013-07-30 11:12:00,76.1,60.3,30.08,WSW,248,1.8,5.4,58,0.00,,,0.00,WUHU216HW,2013-07-30 15:12:00,
2013-07-30 11:13:00,76.3,59.9,30.08,SW,225,0.4,5.4,57,0.00,,,0.00,WUHU216HW,2013-07-30 15:13:00,
2013-07-30 11:15:00,76.7,58.2,30.08,SE,135,3.8,3.8,53,0.00,,,0.00,WUHU216HW,2013-07-30 15:15:00,
2013-07-30 11:17:00,76.7,58.2,30.08,SSW,203,2.0,3.8,53,0.00,,,0.00,WUHU216HW,2013-07-30 15:17:00,
2013-07-30 11:19:00,76.5,58.1,30.08,SW,225,2.5,3.8,53,0.00,,,0.00,WUHU216HW,2013-07-30 15:19:00,
2013-07-30 11:20:00,76.5,58.6,30.08,WSW,248,1.8,3.8,54,0.00,,,0.00,WUHU216HW,2013-07-30 15:20:00,
2013-07-30 11:21:00,76.7,57.8,30.08,WSW,248,2.0,3.8,52,0.00,,,0.00,WUHU216HW,2013-07-30 15:21:00,
2013-07-30 11:23:00,76.9,60.0,30.07,SSW,203,1.6,3.8,56,0.00,,,0.00,WUHU216HW,2013-07-30 15:23:00,
2013-07-30 11:24:00,76.9,60.0,30.07,SSW,203,1.6,3.8,56,0.00,,,0.00,WUHU216HW,2013-07-30 15:24:00,
2013-07-30 11:25:00,77.0,59.0,30.07,SSW,203,1.3,2.9,54,0.00,,,0.00,WUHU216HW,2013-07-30 15:25:00,
2013-07-30 11:26:00,77.0,59.6,30.07,SSW,203,2.9,2.9,55,0.00,,,0.00,WUHU216HW,2013-07-30 15:26:00,
2013-07-30 11:29:00,77.4,59.4,30.07,West,270,4.7,4.7,54,0.00,,,0.00,WUHU216HW,2013-07-30 15:29:00,
2013-07-30 11:30:00,77.6,58.6,30.07,South,180,4.0,4.7,52,0.00,,,0.00,WUHU216HW,2013-07-30 15:30:00,
2013-07-30 11:32:00,77.6,58.6,30.07,SE,135,4.3,4.7,52,0.00,,,0.00,WUHU216HW,2013-07-30 15:32:00,
2013-07-30 11:33:00,77.4,58.4,30.07,SSE,158,2.9,4.7,52,0.00,,,0.00,WUHU216HW,2013-07-30 15:33:00,
2013-07-30 11:34:00,77.4,60.0,30.07,SW,225,1.8,4.7,55,0.00,,,0.00,WUHU216HW,2013-07-30 15:34:00,
2013-07-30 11:35:00,77.2,59.2,30.07,SE,135,4.5,4.7,54,0.00,,,0.00,WUHU216HW,2013-07-30 15:35:00,
2013-07-30 11:36:00,77.2,59.2,30.07,SE,135,4.5,4.7,54,0.00,,,0.00,WUHU216HW,2013-07-30 15:36:00,
2013-07-30 11:37:00,77.4,59.0,30.07,East,90,4.0,4.7,53,0.00,,,0.00,WUHU216HW,2013-07-30 15:37:00,
2013-07-30 11:38:00,77.4,59.0,30.07,ENE,68,3.4,4.5,53,0.00,,,0.00,WUHU216HW,2013-07-30 15:38:00,
2013-07-30 11:40:00,77.8,59.2,30.07,South,180,1.6,4.5,53,0.00,,,0.00,WUHU216HW,2013-07-30 15:40:00,
2013-07-30 11:41:00,77.8,59.2,30.07,South,180,1.6,4.5,53,0.00,,,0.00,WUHU216HW,2013-07-30 15:41:00,
2013-07-30 11:42:00,77.8,59.8,30.07,South,180,0.9,4.5,54,0.00,,,0.00,WUHU216HW,2013-07-30 15:42:00,
2013-07-30 11:43:00,77.8,58.8,30.07,SE,135,4.0,4.5,52,0.00,,,0.00,WUHU216HW,2013-07-30 15:43:00,
2013-07-30 11:44:00,77.8,59.8,30.07,South,180,0.4,4.5,54,0.00,,,0.00,WUHU216HW,2013-07-30 15:44:00,
2013-07-30 11:46:00,77.8,58.2,30.07,WSW,248,4.0,4.0,51,0.00,,,0.00,WUHU216HW,2013-07-30 15:46:00,
2013-07-30 11:47:00,77.8,59.2,30.07,West,270,3.4,4.0,53,0.00,,,0.00,WUHU216HW,2013-07-30 15:47:00,
2013-07-30 11:48:00,77.8,59.2,30.07,WSW,248,4.7,4.9,53,0.00,,,0.00,WUHU216HW,2013-07-30 15:48:00,
2013-07-30 11:49:00,77.8,59.2,30.07,WSW,248,4.7,4.9,53,0.00,,,0.00,WUHU216HW,2013-07-30 15:49:00,
2013-07-30 11:52:00,77.8,58.2,30.07,West,270,3.1,4.9,51,0.00,,,0.00,WUHU216HW,2013-07-30 15:52:00,
2013-07-30 11:54:00,77.8,58.2,30.07,South,180,1.8,4.9,51,0.00,,,0.00,WUHU216HW,2013-07-30 15:54:00,
2013-07-30 11:55:00,77.4,56.8,30.07,SE,135,0.9,4.9,49,0.00,,,0.00,WUHU216HW,2013-07-30 15:55:00,
2013-07-30 11:58:00,77.0,56.4,30.07,SSW,203,0.9,4.7,49,0.00,,,0.00,WUHU216HW,2013-07-30 15:58:00,
2013-07-30 11:59:00,77.0,57.1,30.07,SSW,203,1.1,3.1,50,0.00,,,0.00,WUHU216HW,2013-07-30 15:59:00,
2013-07-30 12:00:00,76.9,57.9,30.07,WSW,248,0.7,3.1,52,0.00,,,0.00,WUHU216HW,2013-07-30 16:00:00,
2013-07-30 12:01:00,76.9,57.9,30.07,WSW,248,0.7,3.1,52,0.00,,,0.00,WUHU216HW,2013-07-30 16:01:00,
2013-07-30 12:04:00,77.6,56.4,30.06,NW,315,0.7,2.9,48,0.00,,,0.00,WUHU216HW,2013-07-30 16:04:00,
2013-07-30 12:05:00,77.8,57.1,30.06,South,180,0.2,2.9,49,0.00,,,0.00,WUHU216HW,2013-07-30 16:05:00,
2013-07-30 12:06:00,77.8,57.1,30.06,South,180,0.2,2.9,49,0.00,,,0.00,WUHU216HW,2013-07-30 16:06:00,
2013-07-30 12:09:00,78.1,57.4,30.06,SW,225,4.3,4.3,49,0.00,,,0.00,WUHU216HW,2013-07-30 16:09:00,
2013-07-30 12:10:00,77.6,55.1,30.06,WSW,248,3.4,4.3,46,0.00,,,0.00,WUHU216HW,2013-07-30 16:10:00,
2013-07-30 12:11:00,77.6,55.1,30.06,WSW,248,3.4,4.3,46,0.00,,,0.00,WUHU216HW,2013-07-30 16:11:00,
2013-07-30 12:12:00,77.6,56.4,30.06,South,180,2.5,4.3,48,0.00,,,0.00,WUHU216HW,2013-07-30 16:12:00,
2013-07-30 12:15:00,77.0,57.1,30.06,SW,225,1.8,5.4,50,0.00,,,0.00,WUHU216HW,2013-07-30 16:15:00,
2013-07-30 12:16:00,76.7,57.8,30.06,SW,225,2.5,5.4,52,0.00,,,0.00,WUHU216HW,2013-07-30 16:16:00,
2013-07-30 12:17:00,76.5,55.4,30.06,South,180,2.2,5.4,48,0.00,,,0.00,WUHU216HW,2013-07-30 16:17:00,
2013-07-30 12:18:00,76.5,54.1,30.06,SSE,158,2.5,5.4,46,0.00,,,0.00,WUHU216HW,2013-07-30 16:18:00,
2013-07-30 12:20:00,76.7,54.9,30.06,SSW,203,0.9,5.4,47,0.00,,,0.00,WUHU216HW,2013-07-30 16:20:00,
2013-07-30 12:21:00,76.9,56.3,30.06,ESE,113,1.8,5.4,49,0.00,,,0.00,WUHU216HW,2013-07-30 16:21:00,
2013-07-30 12:22:00,77.2,56.6,30.06,ESE,113,4.0,5.4,49,0.00,,,0.00,WUHU216HW,2013-07-30 16:22:00,
2013-07-30 12:23:00,77.6,57.0,30.06,ESE,113,2.7,4.0,49,0.00,,,0.00,WUHU216HW,2013-07-30 16:23:00,
2013-07-30 12:25:00,78.3,56.3,30.06,WNW,293,0.4,4.0,47,0.00,,,0.00,WUHU216HW,2013-07-30 16:25:00,
2013-07-30 12:26:00,78.3,56.3,30.06,WNW,293,0.4,4.0,47,0.00,,,0.00,WUHU216HW,2013-07-30 16:26:00,
2013-07-30 12:28:00,78.8,57.4,30.06,WNW,293,0.9,4.7,48,0.00,,,0.00,WUHU216HW,2013-07-30 16:28:00,
2013-07-30 12:29:00,79.2,57.8,30.06,SSE,158,2.5,4.7,48,0.00,,,0.00,WUHU216HW,2013-07-30 16:29:00,
2013-07-30 12:30:00,79.4,56.7,30.06,South,180,1.6,4.7,46,0.00,,,0.00,WUHU216HW,2013-07-30 16:30:00,
2013-07-30 12:31:00,79.4,56.1,30.06,SE,135,5.1,5.1,45,0.00,,,0.00,WUHU216HW,2013-07-30 16:31:00,
2013-07-30 12:33:00,78.5,54.7,30.06,SSW,203,1.3,5.1,44,0.00,,,0.00,WUHU216HW,2013-07-30 16:33:00,
2013-07-30 12:34:00,78.5,54.7,30.06,SSW,203,1.3,5.1,44,0.00,,,0.00,WUHU216HW,2013-07-30 16:34:00,
2013-07-30 12:35:00,78.3,55.7,30.06,WSW,248,1.3,5.1,46,0.00,,,0.00,WUHU216HW,2013-07-30 16:35:00,
2013-07-30 12:37:00,78.1,55.6,30.06,SW,225,2.9,5.1,46,0.00,,,0.00,WUHU216HW,2013-07-30 16:37:00,
2013-07-30 12:39:00,77.4,54.4,30.06,South,180,2.7,5.1,45,0.00,,,0.00,WUHU216HW,2013-07-30 16:39:00,
2013-07-30 12:40:00,77.0,54.0,30.06,South,180,1.6,5.1,45,0.00,,,0.00,WUHU216HW,2013-07-30 16:40:00,
2013-07-30 12:41:00,76.9,54.5,30.06,SW,225,2.5,2.9,46,0.00,,,0.00,WUHU216HW,2013-07-30 16:41:00,
2013-07-30 12:42:00,76.5,54.7,30.06,SSE,158,2.7,2.9,47,0.00,,,0.00,WUHU216HW,2013-07-30 16:42:00,
2013-07-30 12:44:00,76.5,55.4,30.06,SW,225,1.3,2.9,48,0.00,,,0.00,WUHU216HW,2013-07-30 16:44:00,
2013-07-30 12:45:00,76.5,55.4,30.06,SW,225,1.3,2.9,48,0.00,,,0.00,WUHU216HW,2013-07-30 16:45:00,
2013-07-30 12:47:00,76.3,58.0,30.06,South,180,2.2,4.0,53,0.00,,,0.00,WUHU216HW,2013-07-30 16:47:00,
2013-07-30 12:48:00,76.0,54.3,30.06,South,180,3.4,4.0,47,0.00,,,0.00,WUHU216HW,2013-07-30 16:48:00,
2013-07-30 12:50:00,76.1,54.5,30.06,WSW,248,1.1,4.0,47,0.00,,,0.00,WUHU216HW,2013-07-30 16:50:00,
2013-07-30 12:51:00,76.1,54.5,30.06,WSW,248,1.1,4.0,47,0.00,,,0.00,WUHU216HW,2013-07-30 16:51:00,
2013-07-30 12:52:00,76.5,54.7,30.06,NNW,338,0.4,4.0,47,0.00,,,0.00,WUHU216HW,2013-07-30 16:52:00,
2013-07-30 12:53:00,76.5,54.7,30.06,NNW,338,0.4,4.0,47,0.00,,,0.00,WUHU216HW,2013-07-30 16:53:00,
2013-07-30 12:56:00,77.6,56.4,30.06,NNW,338,0.4,3.4,48,0.00,,,0.00,WUHU216HW,2013-07-30 16:56:00,
2013-07-30 12:57:00,78.5,57.2,30.06,WNW,293,0.9,3.4,48,0.00,,,0.00,WUHU216HW,2013-07-30 16:57:00,
2013-07-30 12:58:00,78.8,56.9,30.06,West,270,0.7,3.4,47,0.00,,,0.00,WUHU216HW,2013-07-30 16:58:00,
2013-07-30 12:59:00,78.8,56.9,30.06,West,270,0.7,3.4,47,0.00,,,0.00,WUHU216HW,2013-07-30 16:59:00,
2013-07-30 13:01:00,79.9,57.8,30.06,WNW,293,1.1,1.3,47,0.00,,,0.00,WUHU216HW,2013-07-30 17:01:00,
2013-07-30 13:02:00,80.1,58.0,30.05,WNW,293,0.7,1.3,47,0.00,,,0.00,WUHU216HW,2013-07-30 17:02:00,
2013-07-30 13:03:00,80.5,58.3,30.05,WNW,293,2.2,2.2,47,0.00,,,0.00,WUHU216HW,2013-07-30 17:03:00,
2013-07-30 13:04:00,80.6,58.5,30.06,NW,315,4.7,4.7,47,0.00,,,0.00,WUHU216HW,2013-07-30 17:04:00,
2013-07-30 13:05:00,81.0,58.8,30.06,WNW,293,2.2,4.7,47,0.00,,,0.00,WUHU216HW,2013-07-30 17:05:00,
2013-07-30 13:06:00,81.2,59.0,30.06,WSW,248,2.2,4.7,47,0.00,,,0.00,WUHU216HW,2013-07-30 17:06:00,
2013-07-30 13:09:00,81.5,57.4,30.05,WNW,293,1.8,4.7,44,0.00,,,0.00,WUHU216HW,2013-07-30 17:09:00,
2013-07-30 13:10:00,81.5,57.4,30.05,WNW,293,1.8,4.7,44,0.00,,,0.00,WUHU216HW,2013-07-30 17:10:00,
2013-07-30 13:11:00,81.4,58.5,30.05,SSE,158,0.9,4.7,46,0.00,,,0.00,WUHU216HW,2013-07-30 17:11:00,
2013-07-30 13:12:00,81.4,58.5,30.05,West,270,2.7,4.7,46,0.00,,,0.00,WUHU216HW,2013-07-30 17:12:00,
2013-07-30 13:16:00,80.5,56.4,30.05,NW,315,0.4,3.6,44,0.00,,,0.00,WUHU216HW,2013-07-30 17:16:00,
2013-07-30 13:18:00,80.3,58.1,30.05,WSW,248,1.8,3.6,47,0.00,,,0.00,WUHU216HW,2013-07-30 17:18:00,
2013-07-30 13:22:00,78.8,56.3,30.05,South,180,2.5,3.6,46,0.00,,,0.00,WUHU216HW,2013-07-30 17:22:00,
2013-07-30 13:23:00,78.7,57.3,30.05,SSW,203,2.9,3.6,48,0.00,,,0.00,WUHU216HW,2013-07-30 17:23:00,
2013-07-30 13:26:00,78.1,56.2,30.05,SSW,203,2.9,5.8,47,0.00,,,0.00,WUHU216HW,2013-07-30 17:26:00,
2013-07-30 13:27:00,77.9,56.1,30.05,WSW,248,1.6,5.8,47,0.00,,,0.00,WUHU216HW,2013-07-30 17:27:00,
2013-07-30 13:28:00,77.9,56.1,30.05,WSW,248,1.6,5.8,47,0.00,,,0.00,WUHU216HW,2013-07-30 17:28:00,
2013-07-30 13:33:00,78.3,57.6,30.05,West,270,3.4,5.8,49,0.00,,,0.00,WUHU216HW,2013-07-30 17:33:00,
2013-07-30 13:34:00,78.7,56.7,30.05,SSW,203,1.6,5.8,47,0.00,,,0.00,WUHU216HW,2013-07-30 17:34:00,
2013-07-30 13:38:00,78.8,55.6,30.05,South,180,2.7,4.9,45,0.00,,,0.00,WUHU216HW,2013-07-30 17:38:00,
2013-07-30 13:39:00,78.8,56.3,30.05,SE,135,0.4,4.9,46,0.00,,,0.00,WUHU216HW,2013-07-30 17:39:00,
2013-07-30 13:42:00,78.8,57.4,30.05,West,270,2.9,4.9,48,0.00,,,0.00,WUHU216HW,2013-07-30 17:42:00,
2013-07-30 13:43:00,79.0,56.4,30.05,SSW,203,1.1,4.9,46,0.00,,,0.00,WUHU216HW,2013-07-30 17:43:00,
2013-07-30 13:44:00,79.2,57.2,30.05,NW,315,1.6,4.9,47,0.00,,,0.00,WUHU216HW,2013-07-30 17:44:00,
2013-07-30 13:45:00,79.2,57.2,30.05,NW,315,1.6,4.9,47,0.00,,,0.00,WUHU216HW,2013-07-30 17:45:00,
2013-07-30 13:49:00,79.6,56.3,30.05,SE,135,2.9,4.9,45,0.00,,,0.00,WUHU216HW,2013-07-30 17:49:00,
2013-07-30 13:52:00,79.6,58.2,30.05,WNW,293,1.8,4.9,48,0.00,,,0.00,WUHU216HW,2013-07-30 17:52:00,
2013-07-30 13:53:00,80.3,58.8,30.05,SSW,203,1.1,4.9,48,0.00,,,0.00,WUHU216HW,2013-07-30 17:53:00,
2013-07-30 13:54:00,80.5,58.3,30.04,SSE,158,1.8,4.9,47,0.00,,,0.00,WUHU216HW,2013-07-30 17:54:00,
2013-07-30 13:56:00,80.6,57.2,30.04,SSW,203,3.4,4.7,45,0.00,,,0.00,WUHU216HW,2013-07-30 17:56:00,
2013-07-30 13:57:00,80.3,58.1,30.04,SSE,158,1.8,4.7,47,0.00,,,0.00,WUHU216HW,2013-07-30 17:57:00,
2013-07-30 13:59:00,80.3,58.1,30.04,ESE,113,2.2,4.7,47,0.00,,,0.00,WUHU216HW,2013-07-30 17:59:00,
2013-07-30 14:00:00,80.3,58.8,30.04,ESE,113,1.3,4.7,48,0.00,,,0.00,WUHU216HW,2013-07-30 18:00:00,
2013-07-30 14:02:00,81.0,58.8,30.04,West,270,4.7,4.7,47,0.00,,,0.00,WUHU216HW,2013-07-30 18:02:00,
2013-07-30 14:03:00,81.4,59.1,30.04,WNW,293,6.3,6.3,47,0.00,,,0.00,WUHU216HW,2013-07-30 18:03:00,
2013-07-30 14:05:00,81.7,60.0,30.04,SSE,158,1.1,6.3,48,0.00,,,0.00,WUHU216HW,2013-07-30 18:05:00,
2013-07-30 14:06:00,82.1,59.8,30.04,West,270,4.9,6.5,47,0.00,,,0.00,WUHU216HW,2013-07-30 18:06:00,
2013-07-30 14:08:00,82.6,60.8,30.04,NW,315,3.6,6.5,48,0.00,,,0.00,WUHU216HW,2013-07-30 18:08:00,
2013-07-30 14:10:00,83.3,61.6,30.04,SW,225,0.9,6.5,48,0.00,,,0.00,WUHU216HW,2013-07-30 18:10:00,
2013-07-30 14:13:00,83.7,60.0,30.04,SW,225,1.8,6.5,45,0.00,,,0.00,WUHU216HW,2013-07-30 18:13:00,
2013-07-30 14:14:00,83.3,60.3,30.04,SSW,203,1.6,6.5,46,0.00,,,0.00,WUHU216HW,2013-07-30 18:14:00,
2013-07-30 14:15:00,82.3,60.0,30.04,WSW,248,3.6,4.9,47,0.00,,,0.00,WUHU216HW,2013-07-30 18:15:00,
2013-07-30 14:18:00,81.0,58.8,30.04,SSW,203,1.3,4.5,47,0.00,,,0.00,WUHU216HW,2013-07-30 18:18:00,
2013-07-30 14:19:00,80.5,57.1,30.04,SSW,203,1.8,4.5,45,0.00,,,0.00,WUHU216HW,2013-07-30 18:19:00,
2013-07-30 14:20:00,79.9,57.8,30.04,NW,315,2.9,4.5,47,0.00,,,0.00,WUHU216HW,2013-07-30 18:20:00,
2013-07-30 14:21:00,79.9,57.8,30.04,NW,315,2.9,4.5,47,0.00,,,0.00,WUHU216HW,2013-07-30 18:21:00,
2013-07-30 14:23:00,80.3,59.4,30.04,West,270,2.7,4.0,49,0.00,,,0.00,WUHU216HW,2013-07-30 18:23:00,
2013-07-30 14:24:00,80.5,59.0,30.04,West,270,2.5,3.6,48,0.00,,,0.00,WUHU216HW,2013-07-30 18:24:00,
2013-07-30 14:27:00,81.4,58.5,30.03,West,270,3.4,7.2,46,0.00,,,0.00,WUHU216HW,2013-07-30 18:27:00,
2013-07-30 14:28:00,81.4,57.9,30.03,West,270,4.7,7.2,45,0.00,,,0.00,WUHU216HW,2013-07-30 18:28:00,
2013-07-30 14:29:00,81.4,59.8,30.03,SW,225,3.8,7.2,48,0.00,,,0.00,WUHU216HW,2013-07-30 18:29:00,
2013-07-30 14:33:00,81.2,59.0,30.03,SSW,203,1.8,7.2,47,0.00,,,0.00,WUHU216HW,2013-07-30 18:33:00,
2013-07-30 14:34:00,81.0,57.6,30.03,WSW,248,3.1,7.2,45,0.00,,,0.00,WUHU216HW,2013-07-30 18:34:00,
2013-07-30 14:35:00,81.0,57.6,30.03,West,270,3.6,7.2,45,0.00,,,0.00,WUHU216HW,2013-07-30 18:35:00,
2013-07-30 14:38:00,80.5,57.7,30.03,WSW,248,2.7,6.5,46,0.00,,,0.00,WUHU216HW,2013-07-30 18:38:00,
2013-07-30 14:40:00,80.6,57.2,30.03,WSW,248,2.5,6.5,45,0.00,,,0.00,WUHU216HW,2013-07-30 18:40:00,
2013-07-30 14:41:00,80.6,59.0,30.03,WSW,248,2.5,6.5,48,0.00,,,0.00,WUHU216HW,2013-07-30 18:41:00,
2013-07-30 14:42:00,80.8,56.8,30.03,NNW,338,1.1,6.5,44,0.00,,,0.00,WUHU216HW,2013-07-30 18:42:00,
2013-07-30 14:43:00,81.0,57.6,30.03,NW,315,1.8,6.5,45,0.00,,,0.00,WUHU216HW,2013-07-30 18:43:00,
2013-07-30 14:45:00,81.2,57.7,30.03,WSW,248,1.1,6.3,45,0.00,,,0.00,WUHU216HW,2013-07-30 18:45:00,
2013-07-30 14:46:00,81.2,57.7,30.03,WSW,248,1.1,6.3,45,0.00,,,0.00,WUHU216HW,2013-07-30 18:46:00,
2013-07-30 14:47:00,81.4,57.9,30.03,SW,225,3.8,4.0,45,0.00,,,0.00,WUHU216HW,2013-07-30 18:47:00,
2013-07-30 14:49:00,81.5,58.7,30.03,West,270,1.3,3.8,46,0.00,,,0.00,WUHU216HW,2013-07-30 18:49:00,
2013-07-30 14:50:00,82.3,59.3,30.03,NNW,338,2.0,3.8,46,0.00,,,0.00,WUHU216HW,2013-07-30 18:50:00,
2013-07-30 14:51:00,82.3,59.3,30.03,NNW,338,2.0,3.8,46,0.00,,,0.00,WUHU216HW,2013-07-30 18:51:00,
2013-07-30 14:52:00,82.4,58.9,30.03,WNW,293,3.1,3.8,45,0.00,,,0.00,WUHU216HW,2013-07-30 18:52:00,
2013-07-30 14:54:00,83.5,58.7,30.02,SW,225,6.3,6.3,43,0.00,,,0.00,WUHU216HW,2013-07-30 18:54:00,
2013-07-30 14:55:00,83.5,58.7,30.02,SW,225,6.3,6.3,43,0.00,,,0.00,WUHU216HW,2013-07-30 18:55:00,
2013-07-30 14:56:00,83.5,58.7,30.03,WSW,248,1.1,6.3,43,0.00,,,0.00,WUHU216HW,2013-07-30 18:56:00,
2013-07-30 14:57:00,83.5,58.7,30.03,WSW,248,1.1,6.3,43,0.00,,,0.00,WUHU216HW,2013-07-30 18:57:00,
2013-07-30 15:00:00,82.4,57.6,30.02,SW,225,4.0,6.3,43,0.00,,,0.00,WUHU216HW,2013-07-30 19:00:00,
2013-07-30 15:02:00,81.0,58.1,30.02,SW,225,2.7,6.3,46,0.00,,,0.00,WUHU216HW,2013-07-30 19:02:00,
2013-07-30 15:03:00,80.6,60.3,30.03,SSW,203,2.9,6.3,50,0.00,,,0.00,WUHU216HW,2013-07-30 19:03:00,
2013-07-30 15:05:00,80.3,58.1,30.02,WSW,248,8.5,8.5,47,0.00,,,0.00,WUHU216HW,2013-07-30 19:05:00,
2013-07-30 15:07:00,80.1,57.3,30.02,West,270,3.4,8.5,46,0.00,,,0.00,WUHU216HW,2013-07-30 19:07:00,
2013-07-30 15:08:00,79.9,57.8,30.03,South,180,2.0,8.5,47,0.00,,,0.00,WUHU216HW,2013-07-30 19:08:00,
2013-07-30 15:11:00,79.9,57.3,30.02,SSW,203,1.3,8.5,46,0.00,,,0.00,WUHU216HW,2013-07-30 19:11:00,
2013-07-30 15:13:00,79.9,57.3,30.02,South,180,1.3,8.5,46,0.00,,,0.00,WUHU216HW,2013-07-30 19:13:00,
2013-07-30 15:14:00,80.1,58.6,30.02,SW,225,4.0,8.5,48,0.00,,,0.00,WUHU216HW,2013-07-30 19:14:00,
2013-07-30 15:17:00,81.0,60.7,30.03,West,270,5.8,6.5,50,0.00,,,0.00,WUHU216HW,2013-07-30 19:17:00,
2013-07-30 15:18:00,81.0,58.8,30.03,WSW,248,4.3,6.5,47,0.00,,,0.00,WUHU216HW,2013-07-30 19:18:00,
2013-07-30 15:19:00,81.0,58.8,30.03,WSW,248,4.3,6.5,47,0.00,,,0.00,WUHU216HW,2013-07-30 19:19:00,
2013-07-30 15:22:00,79.9,59.0,30.02,SW,225,6.0,7.6,49,0.00,,,0.00,WUHU216HW,2013-07-30 19:22:00,
2013-07-30 15:24:00,79.7,57.7,30.03,WSW,248,6.3,7.6,47,0.00,,,0.00,WUHU216HW,2013-07-30 19:24:00,
2013-07-30 15:28:00,80.1,58.0,30.02,WSW,248,4.0,7.6,47,0.00,,,0.00,WUHU216HW,2013-07-30 19:28:00,
2013-07-30 15:29:00,80.1,58.0,30.02,WSW,248,4.0,7.6,47,0.00,,,0.00,WUHU216HW,2013-07-30 19:29:00,
2013-07-30 15:30:00,80.3,58.8,30.03,West,270,2.0,7.6,48,0.00,,,0.00,WUHU216HW,2013-07-30 19:30:00,
2013-07-30 15:33:00,80.6,57.2,30.03,WSW,248,4.5,6.3,45,0.00,,,0.00,WUHU216HW,2013-07-30 19:33:00,
2013-07-30 15:35:00,80.3,56.9,30.03,SW,225,1.8,5.8,45,0.00,,,0.00,WUHU216HW,2013-07-30 19:35:00,
2013-07-30 15:39:00,80.1,58.0,30.02,West,270,3.1,4.7,47,0.00,,,0.00,WUHU216HW,2013-07-30 19:39:00,
2013-07-30 15:40:00,80.3,58.1,30.02,SSW,203,1.6,4.7,47,0.00,,,0.00,WUHU216HW,2013-07-30 19:40:00,
2013-07-30 15:41:00,80.3,58.1,30.02,SSW,203,1.6,4.7,47,0.00,,,0.00,WUHU216HW,2013-07-30 19:41:00,
2013-07-30 15:45:00,80.1,58.0,30.02,WSW,248,5.4,5.4,47,0.00,,,0.00,WUHU216HW,2013-07-30 19:45:00,
2013-07-30 15:46:00,80.1,58.0,30.02,WNW,293,4.0,5.4,47,0.00,,,0.00,WUHU216HW,2013-07-30 19:46:00,
2013-07-30 15:47:00,80.3,58.1,30.02,WSW,248,2.2,5.4,47,0.00,,,0.00,WUHU216HW,2013-07-30 19:47:00,
2013-07-30 15:48:00,80.5,59.0,30.02,West,270,4.0,5.4,48,0.00,,,0.00,WUHU216HW,2013-07-30 19:48:00,
2013-07-30 15:50:00,81.0,58.8,30.02,SSE,158,2.2,5.4,47,0.00,,,0.00,WUHU216HW,2013-07-30 19:50:00,
2013-07-30 15:51:00,81.0,58.8,30.02,SW,225,2.5,5.4,47,0.00,,,0.00,WUHU216HW,2013-07-30 19:51:00,
2013-07-30 15:53:00,80.6,57.2,30.02,ESE,113,1.8,5.4,45,0.00,,,0.00,WUHU216HW,2013-07-30 19:53:00,
2013-07-30 15:54:00,80.6,57.2,30.02,ESE,113,1.8,5.4,45,0.00,,,0.00,WUHU216HW,2013-07-30 19:54:00,
2013-07-30 15:57:00,80.6,59.0,30.02,SSE,158,0.9,4.7,48,0.00,,,0.00,WUHU216HW,2013-07-30 19:57:00,
2013-07-30 15:58:00,80.6,58.5,30.02,SSW,203,4.0,4.7,47,0.00,,,0.00,WUHU216HW,2013-07-30 19:58:00,
2013-07-30 15:59:00,80.5,57.7,30.02,SSE,158,2.9,4.7,46,0.00,,,0.00,WUHU216HW,2013-07-30 19:59:00,
2013-07-30 16:02:00,79.9,59.0,30.01,WSW,248,2.0,4.7,49,0.00,,,0.00,WUHU216HW,2013-07-30 20:02:00,
2013-07-30 16:04:00,79.6,57.5,30.01,SSE,158,2.5,4.7,47,0.00,,,0.00,WUHU216HW,2013-07-30 20:04:00,
2013-07-30 16:05:00,79.4,58.6,30.01,SE,135,6.3,6.3,49,0.00,,,0.00,WUHU216HW,2013-07-30 20:05:00,
2013-07-30 16:06:00,79.6,58.2,30.01,SE,135,2.2,6.3,48,0.00,,,0.00,WUHU216HW,2013-07-30 20:06:00,
2013-07-30 16:09:00,79.6,57.5,30.01,SE,135,3.4,6.3,47,0.00,,,0.00,WUHU216HW,2013-07-30 20:09:00,
2013-07-30 16:10:00,79.7,57.7,30.01,SSE,158,1.8,6.3,47,0.00,,,0.00,WUHU216HW,2013-07-30 20:10:00,
2013-07-30 16:11:00,79.9,58.4,30.01,ESE,113,3.1,6.3,48,0.00,,,0.00,WUHU216HW,2013-07-30 20:11:00,
2013-07-30 16:12:00,80.1,58.6,30.01,ESE,113,2.5,6.3,48,0.00,,,0.00,WUHU216HW,2013-07-30 20:12:00,
2013-07-30 16:14:00,80.1,58.0,30.01,WSW,248,4.5,6.3,47,0.00,,,0.00,WUHU216HW,2013-07-30 20:14:00,
2013-07-30 16:15:00,80.1,58.0,30.01,NW,315,2.0,4.5,47,0.00,,,0.00,WUHU216HW,2013-07-30 20:15:00,
2013-07-30 16:16:00,80.3,58.8,30.01,SSE,158,5.1,5.1,48,0.00,,,0.00,WUHU216HW,2013-07-30 20:16:00,
2013-07-30 16:17:00,80.5,58.3,30.00,ESE,113,7.2,7.2,47,0.00,,,0.00,WUHU216HW,2013-07-30 20:17:00,
2013-07-30 16:18:00,80.3,58.8,30.00,SSE,158,6.3,7.2,48,0.00,,,0.00,WUHU216HW,2013-07-30 20:18:00,
2013-07-30 16:20:00,80.1,58.6,30.00,SSW,203,2.9,7.2,48,0.00,,,0.00,WUHU216HW,2013-07-30 20:20:00,
2013-07-30 16:22:00,79.7,57.1,30.01,SW,225,2.0,7.2,46,0.00,,,0.00,WUHU216HW,2013-07-30 20:22:00,
2013-07-30 16:24:00,79.6,59.3,30.00,ESE,113,0.7,7.2,50,0.00,,,0.00,WUHU216HW,2013-07-30 20:24:00,
2013-07-30 16:25:00,79.4,58.6,30.01,SW,225,1.3,7.2,49,0.00,,,0.00,WUHU216HW,2013-07-30 20:25:00,
2013-07-30 16:28:00,79.9,60.7,30.00,ENE,68,1.1,2.9,52,0.00,,,0.00,WUHU216HW,2013-07-30 20:28:00,
2013-07-30 16:30:00,80.3,60.5,30.00,SSE,158,1.6,2.9,51,0.00,,,0.00,WUHU216HW,2013-07-30 20:30:00,
2013-07-30 16:31:00,80.3,58.1,30.00,SSE,158,4.7,4.7,47,0.00,,,0.00,WUHU216HW,2013-07-30 20:31:00,
2013-07-30 16:33:00,80.3,59.9,30.00,SSW,203,3.1,4.7,50,0.00,,,0.00,WUHU216HW,2013-07-30 20:33:00,
2013-07-30 16:36:00,79.6,57.5,30.01,WSW,248,4.3,4.7,47,0.00,,,0.00,WUHU216HW,2013-07-30 20:36:00,
2013-07-30 16:37:00,79.6,57.5,30.01,WSW,248,4.3,4.7,47,0.00,,,0.00,WUHU216HW,2013-07-30 20:37:00,
2013-07-30 16:39:00,79.6,58.2,30.01,SE,135,1.1,4.7,48,0.00,,,0.00,WUHU216HW,2013-07-30 20:39:00,
2013-07-30 16:41:00,79.6,57.5,30.00,SE,135,1.6,4.7,47,0.00,,,0.00,WUHU216HW,2013-07-30 20:41:00,
2013-07-30 16:42:00,79.7,60.0,30.01,WSW,248,1.8,4.3,51,0.00,,,0.00,WUHU216HW,2013-07-30 20:42:00,
2013-07-30 16:44:00,80.1,59.2,30.00,West,270,2.0,4.3,49,0.00,,,0.00,WUHU216HW,2013-07-30 20:44:00,
2013-07-30 16:45:00,80.1,59.2,30.00,West,270,2.0,4.3,49,0.00,,,0.00,WUHU216HW,2013-07-30 20:45:00,
2013-07-30 16:46:00,80.5,58.3,30.01,NW,315,1.1,3.1,47,0.00,,,0.00,WUHU216HW,2013-07-30 20:46:00,
2013-07-30 16:48:00,81.0,59.4,30.00,West,270,3.8,3.8,48,0.00,,,0.00,WUHU216HW,2013-07-30 20:48:00,
2013-07-30 16:49:00,81.4,59.8,30.00,NW,315,2.2,3.8,48,0.00,,,0.00,WUHU216HW,2013-07-30 20:49:00,
2013-07-30 16:50:00,81.5,59.9,30.00,WSW,248,2.0,3.8,48,0.00,,,0.00,WUHU216HW,2013-07-30 20:50:00,
2013-07-30 16:51:00,81.9,60.2,30.00,WSW,248,1.6,3.8,48,0.00,,,0.00,WUHU216HW,2013-07-30 20:51:00,
2013-07-30 16:53:00,82.3,60.0,30.00,West,270,2.5,3.8,47,0.00,,,0.00,WUHU216HW,2013-07-30 20:53:00,
2013-07-30 16:54:00,82.6,60.3,30.00,SW,225,0.9,3.8,47,0.00,,,0.00,WUHU216HW,2013-07-30 20:54:00,
2013-07-30 16:57:00,83.0,60.0,30.00,SW,225,1.8,3.8,46,0.00,,,0.00,WUHU216HW,2013-07-30 20:57:00,
2013-07-30 16:58:00,83.0,60.0,30.00,SW,225,1.8,3.8,46,0.00,,,0.00,WUHU216HW,2013-07-30 20:58:00,
2013-07-30 16:59:00,82.8,58.6,30.00,South,180,3.1,4.7,44,0.00,,,0.00,WUHU216HW,2013-07-30 20:59:00,
2013-07-30 17:01:00,82.3,59.3,30.00,West,270,5.4,5.4,46,0.00,,,0.00,WUHU216HW,2013-07-30 21:01:00,
2013-07-30 17:03:00,81.4,58.5,30.00,SW,225,2.0,5.4,46,0.00,,,0.00,WUHU216HW,2013-07-30 21:03:00,
2013-07-30 17:05:00,80.6,58.5,30.00,WSW,248,2.7,5.4,47,0.00,,,0.00,WUHU216HW,2013-07-30 21:05:00,
2013-07-30 17:07:00,80.3,58.8,30.00,SW,225,1.1,5.4,48,0.00,,,0.00,WUHU216HW,2013-07-30 21:07:00,
2013-07-30 17:08:00,80.1,59.2,30.00,SSW,203,2.5,5.4,49,0.00,,,0.00,WUHU216HW,2013-07-30 21:08:00,
2013-07-30 17:09:00,79.9,60.2,30.00,SW,225,2.7,5.4,51,0.00,,,0.00,WUHU216HW,2013-07-30 21:09:00,
2013-07-30 17:10:00,79.7,60.0,30.00,SW,225,3.4,5.4,51,0.00,,,0.00,WUHU216HW,2013-07-30 21:10:00,
2013-07-30 17:12:00,79.4,59.7,30.00,SSW,203,2.2,3.4,51,0.00,,,0.00,WUHU216HW,2013-07-30 21:12:00,
2013-07-30 17:14:00,79.0,57.6,30.00,South,180,1.6,3.4,48,0.00,,,0.00,WUHU216HW,2013-07-30 21:14:00,
2013-07-30 17:15:00,79.0,58.2,30.00,SW,225,1.6,3.4,49,0.00,,,0.00,WUHU216HW,2013-07-30 21:15:00,
2013-07-30 17:18:00,78.8,58.7,30.00,SSW,203,2.0,3.4,50,0.00,,,0.00,WUHU216HW,2013-07-30 21:18:00,
2013-07-30 17:20:00,78.7,57.3,30.00,SW,225,1.6,2.7,48,0.00,,,0.00,WUHU216HW,2013-07-30 21:20:00,
2013-07-30 17:21:00,78.8,58.7,30.00,WSW,248,1.3,2.7,50,0.00,,,0.00,WUHU216HW,2013-07-30 21:21:00,
2013-07-30 17:24:00,78.8,58.1,30.00,SSE,158,1.3,2.7,49,0.00,,,0.00,WUHU216HW,2013-07-30 21:24:00,
2013-07-30 17:26:00,79.2,58.4,30.00,ESE,113,1.1,2.7,49,0.00,,,0.00,WUHU216HW,2013-07-30 21:26:00,
2013-07-30 17:27:00,79.4,58.6,30.00,SE,135,0.4,2.0,49,0.00,,,0.00,WUHU216HW,2013-07-30 21:27:00,
2013-07-30 17:28:00,79.6,58.7,30.00,South,180,0.4,1.8,49,0.00,,,0.00,WUHU216HW,2013-07-30 21:28:00,
2013-07-30 17:29:00,79.6,58.7,30.00,South,180,0.0,1.8,49,0.00,,,0.00,WUHU216HW,2013-07-30 21:29:00,
2013-07-30 17:32:00,79.6,58.7,30.00,SSW,203,1.3,1.8,49,0.00,,,0.00,WUHU216HW,2013-07-30 21:32:00,
2013-07-30 17:34:00,79.6,58.2,30.00,SSW,203,1.6,1.8,48,0.00,,,0.00,WUHU216HW,2013-07-30 21:34:00,
2013-07-30 17:35:00,79.6,58.2,30.00,SSW,203,1.6,1.8,48,0.00,,,0.00,WUHU216HW,2013-07-30 21:35:00,
2013-07-30 17:38:00,79.0,58.2,30.00,South,180,2.2,2.2,49,0.00,,,0.00,WUHU216HW,2013-07-30 21:38:00,
2013-07-30 17:40:00,78.5,58.3,30.00,South,180,1.1,2.2,50,0.00,,,0.00,WUHU216HW,2013-07-30 21:40:00,
2013-07-30 17:42:00,78.5,58.9,30.00,SSW,203,1.1,2.2,51,0.00,,,0.00,WUHU216HW,2013-07-30 21:42:00,
2013-07-30 17:43:00,78.5,58.3,30.00,South,180,0.4,2.2,50,0.00,,,0.00,WUHU216HW,2013-07-30 21:43:00,
2013-07-30 17:45:00,78.5,58.9,30.00,SW,225,1.1,2.2,51,0.00,,,0.00,WUHU216HW,2013-07-30 21:45:00,
2013-07-30 17:46:00,78.5,58.9,30.00,SW,225,1.1,2.2,51,0.00,,,0.00,WUHU216HW,2013-07-30 21:46:00,
2013-07-30 17:47:00,78.5,58.3,30.00,SW,225,2.0,2.0,50,0.00,,,0.00,WUHU216HW,2013-07-30 21:47:00,
2013-07-30 17:49:00,78.5,58.9,30.00,WSW,248,2.9,2.9,51,0.00,,,0.00,WUHU216HW,2013-07-30 21:49:00,
2013-07-30 17:51:00,78.3,59.8,30.00,SSW,203,1.1,2.9,53,0.00,,,0.00,WUHU216HW,2013-07-30 21:51:00,
2013-07-30 17:53:00,78.1,59.0,30.00,SW,225,1.3,2.9,52,0.00,,,0.00,WUHU216HW,2013-07-30 21:53:00,
2013-07-30 17:55:00,78.1,60.1,30.00,SSW,203,1.6,2.9,54,0.00,,,0.00,WUHU216HW,2013-07-30 21:55:00,
2013-07-30 17:56:00,77.9,58.9,30.00,SW,225,1.1,2.9,52,0.00,,,0.00,WUHU216HW,2013-07-30 21:56:00,
2013-07-30 17:58:00,77.9,59.4,30.00,SSW,203,0.7,1.8,53,0.00,,,0.00,WUHU216HW,2013-07-30 21:58:00,
2013-07-30 18:00:00,77.9,60.0,30.00,SSW,203,0.7,1.8,54,0.00,,,0.00,WUHU216HW,2013-07-30 22:00:00,
2013-07-30 18:01:00,78.1,59.6,30.00,SSW,203,1.1,1.8,53,0.00,,,0.00,WUHU216HW,2013-07-30 22:01:00,
2013-07-30 18:02:00,78.1,60.1,30.00,SW,225,1.1,1.8,54,0.00,,,0.00,WUHU216HW,2013-07-30 22:02:00,
2013-07-30 18:04:00,78.1,58.6,30.00,SW,225,1.6,1.8,51,0.00,,,0.00,WUHU216HW,2013-07-30 22:04:00,
2013-07-30 18:05:00,78.1,60.1,30.00,SW,225,1.6,1.6,54,0.00,,,0.00,WUHU216HW,2013-07-30 22:05:00,
2013-07-30 18:07:00,78.1,60.1,30.00,SSW,203,1.1,1.6,54,0.00,,,0.00,WUHU216HW,2013-07-30 22:07:00,
2013-07-30 18:09:00,77.9,58.9,30.00,SSW,203,1.1,1.6,52,0.00,,,0.00,WUHU216HW,2013-07-30 22:09:00,
2013-07-30 18:12:00,77.8,58.8,30.00,SW,225,1.1,1.6,52,0.00,,,0.00,WUHU216HW,2013-07-30 22:12:00,
2013-07-30 18:13:00,77.8,59.2,30.00,SW,225,1.1,1.6,53,0.00,,,0.00,WUHU216HW,2013-07-30 22:13:00,
2013-07-30 18:15:00,77.6,59.6,30.00,SSW,203,1.1,1.3,54,0.00,,,0.00,WUHU216HW,2013-07-30 22:15:00,
2013-07-30 18:17:00,77.4,60.0,30.00,SW,225,1.8,1.8,55,0.00,,,0.00,WUHU216HW,2013-07-30 22:17:00,
2013-07-30 18:18:00,77.4,60.0,30.00,SW,225,1.6,1.8,55,0.00,,,0.00,WUHU216HW,2013-07-30 22:18:00,
2013-07-30 18:19:00,77.2,60.3,30.00,SSW,203,1.1,1.8,56,0.00,,,0.00,WUHU216HW,2013-07-30 22:19:00,
2013-07-30 18:22:00,77.2,60.3,30.00,South,180,0.9,1.8,56,0.00,,,0.00,WUHU216HW,2013-07-30 22:22:00,
2013-07-30 18:23:00,77.2,60.3,30.00,SSW,203,1.3,1.8,56,0.00,,,0.00,WUHU216HW,2013-07-30 22:23:00,
2013-07-30 18:24:00,77.2,59.8,30.00,SE,135,2.5,2.5,55,0.00,,,0.00,WUHU216HW,2013-07-30 22:24:00,
2013-07-30 18:25:00,77.2,60.8,30.00,SSE,158,1.1,2.5,57,0.00,,,0.00,WUHU216HW,2013-07-30 22:25:00,
2013-07-30 18:27:00,77.2,59.8,30.00,SSE,158,1.1,2.5,55,0.00,,,0.00,WUHU216HW,2013-07-30 22:27:00,
2013-07-30 18:28:00,77.2,59.2,30.00,SSE,158,1.3,2.5,54,0.00,,,0.00,WUHU216HW,2013-07-30 22:28:00,
2013-07-30 18:30:00,77.2,59.8,30.00,SSW,203,0.9,2.5,55,0.00,,,0.00,WUHU216HW,2013-07-30 22:30:00,
2013-07-30 18:31:00,77.2,59.8,30.00,SSW,203,0.9,2.5,55,0.00,,,0.00,WUHU216HW,2013-07-30 22:31:00,
2013-07-30 18:32:00,77.0,59.0,30.00,South,180,1.3,2.5,54,0.00,,,0.00,WUHU216HW,2013-07-30 22:32:00,
2013-07-30 18:33:00,77.0,59.0,30.00,SSW,203,1.1,2.5,54,0.00,,,0.00,WUHU216HW,2013-07-30 22:33:00,
2013-07-30 18:34:00,77.0,59.6,30.00,SSW,203,0.9,2.5,55,0.00,,,0.00,WUHU216HW,2013-07-30 22:34:00,
2013-07-30 18:36:00,76.9,60.0,30.00,South,180,0.4,1.3,56,0.00,,,0.00,WUHU216HW,2013-07-30 22:36:00,
2013-07-30 18:37:00,76.9,60.4,30.00,South,180,0.7,1.3,57,0.00,,,0.00,WUHU216HW,2013-07-30 22:37:00,
2013-07-30 18:39:00,76.9,60.0,30.00,SSE,158,1.3,1.3,56,0.00,,,0.00,WUHU216HW,2013-07-30 22:39:00,
2013-07-30 18:42:00,76.9,60.4,30.00,SSW,203,0.9,1.3,57,0.00,,,0.00,WUHU216HW,2013-07-30 22:42:00,
2013-07-30 18:43:00,76.9,60.4,30.00,SSW,203,0.9,1.3,57,0.00,,,0.00,WUHU216HW,2013-07-30 22:43:00,
2013-07-30 18:45:00,76.9,60.9,30.00,SE,135,1.3,1.3,58,0.00,,,0.00,WUHU216HW,2013-07-30 22:45:00,
2013-07-30 18:47:00,76.7,60.3,30.00,SSE,158,0.7,1.3,57,0.00,,,0.00,WUHU216HW,2013-07-30 22:47:00,
2013-07-30 18:48:00,76.9,60.4,30.00,SSE,158,1.1,1.3,57,0.00,,,0.00,WUHU216HW,2013-07-30 22:48:00,
2013-07-30 18:50:00,76.9,60.9,30.00,SE,135,1.1,1.3,58,0.00,,,0.00,WUHU216HW,2013-07-30 22:50:00,
2013-07-30 18:52:00,77.0,61.1,30.00,SE,135,0.7,1.3,58,0.00,,,0.00,WUHU216HW,2013-07-30 22:52:00,
2013-07-30 18:53:00,77.2,61.3,30.00,SE,135,0.7,1.3,58,0.00,,,0.00,WUHU216HW,2013-07-30 22:53:00,
2013-07-30 18:54:00,77.2,61.3,30.00,SE,135,0.9,1.3,58,0.00,,,0.00,WUHU216HW,2013-07-30 22:54:00,
2013-07-30 18:56:00,77.4,60.9,30.00,ESE,113,1.6,2.0,57,0.00,,,0.00,WUHU216HW,2013-07-30 22:56:00,
2013-07-30 18:58:00,77.4,60.9,30.00,SE,135,2.0,2.0,57,0.00,,,0.00,WUHU216HW,2013-07-30 22:58:00,
2013-07-30 18:59:00,77.4,60.9,30.00,SE,135,1.8,2.0,57,0.00,,,0.00,WUHU216HW,2013-07-30 22:59:00,
2013-07-30 19:01:00,77.4,60.9,30.00,SSE,158,2.0,2.0,57,0.00,,,0.00,WUHU216HW,2013-07-30 23:01:00,
2013-07-30 19:03:00,77.4,60.9,30.00,SSE,158,1.3,2.0,57,0.00,,,0.00,WUHU216HW,2013-07-30 23:03:00,
2013-07-30 19:04:00,77.2,61.3,30.00,SE,135,2.0,2.0,58,0.00,,,0.00,WUHU216HW,2013-07-30 23:04:00,
2013-07-30 19:05:00,77.2,60.8,30.00,SSE,158,2.0,2.0,57,0.00,,,0.00,WUHU216HW,2013-07-30 23:05:00,
2013-07-30 19:06:00,77.2,60.8,30.00,SSE,158,2.0,2.0,57,0.00,,,0.00,WUHU216HW,2013-07-30 23:06:00,
2013-07-30 19:08:00,77.0,60.6,30.01,SE,135,2.2,2.9,57,0.00,,,0.00,WUHU216HW,2013-07-30 23:08:00,
2013-07-30 19:09:00,77.0,60.6,30.01,SE,135,2.2,2.9,57,0.00,,,0.00,WUHU216HW,2013-07-30 23:09:00,
2013-07-30 19:10:00,76.7,61.3,30.00,SE,135,2.0,2.9,59,0.00,,,0.00,WUHU216HW,2013-07-30 23:10:00,
2013-07-30 19:11:00,76.7,61.3,30.00,SE,135,2.0,2.9,59,0.00,,,0.00,WUHU216HW,2013-07-30 23:11:00,
2013-07-30 19:13:00,76.7,60.8,30.00,SSE,158,3.6,3.6,58,0.00,,,0.00,WUHU216HW,2013-07-30 23:13:00,
2013-07-30 19:14:00,76.5,61.1,30.00,SE,135,4.3,4.3,59,0.00,,,0.00,WUHU216HW,2013-07-30 23:14:00,
2013-07-30 19:15:00,76.3,60.9,30.00,SSE,158,3.6,4.3,59,0.00,,,0.00,WUHU216HW,2013-07-30 23:15:00,
2013-07-30 19:17:00,76.1,61.3,30.00,SE,135,2.9,4.3,60,0.00,,,0.00,WUHU216HW,2013-07-30 23:17:00,
2013-07-30 19:18:00,76.0,61.1,30.00,SE,135,2.5,4.3,60,0.00,,,0.00,WUHU216HW,2013-07-30 23:18:00,
2013-07-30 19:19:00,76.0,61.1,30.00,SE,135,2.5,4.3,60,0.00,,,0.00,WUHU216HW,2013-07-30 23:19:00,
2013-07-30 19:20:00,75.8,60.9,30.00,SE,135,1.8,4.3,60,0.00,,,0.00,WUHU216HW,2013-07-30 23:20:00,
2013-07-30 19:22:00,75.8,60.9,30.00,SE,135,3.1,4.3,60,0.00,,,0.00,WUHU216HW,2013-07-30 23:22:00,
2013-07-30 19:24:00,75.6,61.2,30.00,SE,135,3.1,4.3,61,0.00,,,0.00,WUHU216HW,2013-07-30 23:24:00,
2013-07-30 19:25:00,75.4,61.1,30.00,SSE,158,3.6,3.6,61,0.00,,,0.00,WUHU216HW,2013-07-30 23:25:00,
2013-07-30 19:26:00,75.4,61.1,30.00,SSE,158,3.6,3.6,61,0.00,,,0.00,WUHU216HW,2013-07-30 23:26:00,
2013-07-30 19:28:00,75.2,60.9,30.00,SE,135,1.8,4.5,61,0.00,,,0.00,WUHU216HW,2013-07-30 23:28:00,
2013-07-30 19:29:00,75.2,61.4,30.00,SSE,158,5.1,5.1,62,0.00,,,0.00,WUHU216HW,2013-07-30 23:29:00,
2013-07-30 19:30:00,75.2,61.4,30.00,SSE,158,3.8,5.1,62,0.00,,,0.00,WUHU216HW,2013-07-30 23:30:00,
2013-07-30 19:31:00,75.2,61.4,30.00,SSE,158,3.8,5.1,62,0.00,,,0.00,WUHU216HW,2013-07-30 23:31:00,
2013-07-30 19:32:00,75.1,61.6,30.00,SE,135,1.3,5.1,63,0.00,,,0.00,WUHU216HW,2013-07-30 23:32:00,
2013-07-30 19:34:00,74.9,61.5,30.00,SSE,158,2.2,5.1,63,0.00,,,0.00,WUHU216HW,2013-07-30 23:34:00,
2013-07-30 19:35:00,74.7,61.3,30.00,SE,135,1.8,5.1,63,0.00,,,0.00,WUHU216HW,2013-07-30 23:35:00,
2013-07-30 19:36:00,74.7,61.3,30.00,SE,135,1.8,5.1,63,0.00,,,0.00,WUHU216HW,2013-07-30 23:36:00,
2013-07-30 19:37:00,74.5,61.1,30.00,SSE,158,3.4,5.4,63,0.00,,,0.00,WUHU216HW,2013-07-30 23:37:00,
2013-07-30 19:40:00,74.5,61.6,30.01,SSE,158,2.0,5.4,64,0.00,,,0.00,WUHU216HW,2013-07-30 23:40:00,
2013-07-30 19:41:00,74.3,61.4,30.01,SSE,158,1.1,5.4,64,0.00,,,0.00,WUHU216HW,2013-07-30 23:41:00,
2013-07-30 19:42:00,74.3,61.4,30.00,SSE,158,2.9,5.4,64,0.00,,,0.00,WUHU216HW,2013-07-30 23:42:00,
2013-07-30 19:43:00,74.2,61.2,30.00,SSW,203,2.7,5.4,64,0.00,,,0.00,WUHU216HW,2013-07-30 23:43:00,
2013-07-30 19:46:00,74.2,61.2,30.01,SE,135,2.9,5.4,64,0.00,,,0.00,WUHU216HW,2013-07-30 23:46:00,
2013-07-30 19:47:00,74.0,61.0,30.01,SE,135,4.0,4.7,64,0.00,,,0.00,WUHU216HW,2013-07-30 23:47:00,
2013-07-30 19:49:00,74.0,61.0,30.01,SSE,158,3.8,4.7,64,0.00,,,0.00,WUHU216HW,2013-07-30 23:49:00,
2013-07-30 19:52:00,73.8,60.9,30.01,South,180,4.0,4.7,64,0.00,,,0.00,WUHU216HW,2013-07-30 23:52:00,
2013-07-30 19:53:00,73.8,61.3,30.01,SSE,158,3.1,4.7,65,0.00,,,0.00,WUHU216HW,2013-07-30 23:53:00,
2013-07-30 19:54:00,73.8,60.9,30.01,SSE,158,3.1,4.7,64,0.00,,,0.00,WUHU216HW,2013-07-30 23:54:00,
2013-07-30 19:57:00,73.6,61.1,30.01,ESE,113,3.1,4.7,65,0.00,,,0.00,WUHU216HW,2013-07-30 23:57:00,
2013-07-30 19:58:00,73.8,61.3,30.01,SE,135,2.9,4.7,65,0.00,,,0.00,WUHU216HW,2013-07-30 23:58:00,
2013-07-30 19:59:00,73.6,61.1,30.01,SSE,158,1.3,4.7,65,0.00,,,0.00,WUHU216HW,2013-07-30 23:59:00,
2013-07-30 20:00:00,73.6,61.1,30.01,SSE,158,2.5,4.7,65,0.00,,,0.00,WUHU216HW,2013-07-31 00:00:00,
2013-07-30 20:02:00,73.4,61.4,30.01,SE,135,1.3,3.1,66,0.00,,,0.00,WUHU216HW,2013-07-31 00:02:00,
2013-07-30 20:04:00,73.4,61.4,30.01,SE,135,2.5,3.1,66,0.00,,,0.00,WUHU216HW,2013-07-31 00:04:00,
2013-07-30 20:05:00,73.3,61.2,30.01,South,180,2.9,3.1,66,0.00,,,0.00,WUHU216HW,2013-07-31 00:05:00,
2013-07-30 20:09:00,73.1,61.0,30.01,SSE,158,1.3,3.1,66,0.00,,,0.00,WUHU216HW,2013-07-31 00:09:00,
2013-07-30 20:10:00,73.1,61.0,30.01,SSE,158,1.1,2.9,66,0.00,,,0.00,WUHU216HW,2013-07-31 00:10:00,
2013-07-30 20:13:00,72.9,60.8,30.01,SSE,158,1.3,2.9,66,0.00,,,0.00,WUHU216HW,2013-07-31 00:13:00,
2013-07-30 20:14:00,72.7,60.7,30.01,SSE,158,1.1,2.9,66,0.00,,,0.00,WUHU216HW,2013-07-31 00:14:00,
2013-07-30 20:15:00,72.7,60.7,30.01,SSE,158,1.1,2.5,66,0.00,,,0.00,WUHU216HW,2013-07-31 00:15:00,
2013-07-30 20:16:00,72.7,60.7,30.01,SSE,158,1.1,2.5,66,0.00,,,0.00,WUHU216HW,2013-07-31 00:16:00,
2013-07-30 20:17:00,72.7,60.7,30.01,SSE,158,0.9,2.0,66,0.00,,,0.00,WUHU216HW,2013-07-31 00:17:00,
2013-07-30 20:19:00,72.7,60.7,30.01,South,180,0.4,1.8,66,0.00,,,0.00,WUHU216HW,2013-07-31 00:19:00,
2013-07-30 20:20:00,72.7,60.7,30.01,South,180,0.4,1.8,66,0.00,,,0.00,WUHU216HW,2013-07-31 00:20:00,
2013-07-30 20:21:00,72.7,60.7,30.01,South,180,0.4,1.3,66,0.00,,,0.00,WUHU216HW,2013-07-31 00:21:00,
2013-07-30 20:22:00,72.5,60.5,30.01,SSW,203,0.0,1.3,66,0.00,,,0.00,WUHU216HW,2013-07-31 00:22:00,
2013-07-30 20:24:00,72.5,60.5,30.01,SSW,203,0.0,1.1,66,0.00,,,0.00,WUHU216HW,2013-07-31 00:24:00,
2013-07-30 20:26:00,72.5,60.5,30.00,SW,225,0.0,0.9,66,0.00,,,0.00,WUHU216HW,2013-07-31 00:26:00,
2013-07-30 20:27:00,72.5,60.5,30.00,SW,225,0.0,0.9,66,0.00,,,0.00,WUHU216HW,2013-07-31 00:27:00,
2013-07-30 20:28:00,72.5,60.5,30.00,WSW,248,0.4,0.9,66,0.00,,,0.00,WUHU216HW,2013-07-31 00:28:00,
2013-07-30 20:29:00,72.4,60.3,30.01,WSW,248,0.9,0.9,66,0.00,,,0.00,WUHU216HW,2013-07-31 00:29:00,
2013-07-30 20:31:00,72.4,60.3,30.00,West,270,1.1,1.1,66,0.00,,,0.00,WUHU216HW,2013-07-31 00:31:00,
2013-07-30 20:32:00,72.4,60.3,30.01,WSW,248,1.8,2.0,66,0.00,,,0.00,WUHU216HW,2013-07-31 00:32:00,
2013-07-30 20:33:00,72.4,60.3,30.01,WSW,248,1.8,2.0,66,0.00,,,0.00,WUHU216HW,2013-07-31 00:33:00,
2013-07-30 20:35:00,72.4,60.3,30.01,West,270,1.1,2.0,66,0.00,,,0.00,WUHU216HW,2013-07-31 00:35:00,
2013-07-30 20:36:00,72.4,60.3,30.01,WSW,248,1.8,2.0,66,0.00,,,0.00,WUHU216HW,2013-07-31 00:36:00,
2013-07-30 20:38:00,72.4,60.3,30.01,WSW,248,2.5,2.5,66,0.00,,,0.00,WUHU216HW,2013-07-31 00:38:00,
2013-07-30 20:39:00,72.4,60.3,30.01,WSW,248,1.8,2.5,66,0.00,,,0.00,WUHU216HW,2013-07-31 00:39:00,
2013-07-30 20:42:00,72.4,60.3,30.01,WNW,293,2.2,2.5,66,0.00,,,0.00,WUHU216HW,2013-07-31 00:42:00,
2013-07-30 20:43:00,72.4,60.3,30.01,West,270,2.2,2.5,66,0.00,,,0.00,WUHU216HW,2013-07-31 00:43:00,
2013-07-30 20:44:00,72.4,60.3,30.01,West,270,2.2,2.5,66,0.00,,,0.00,WUHU216HW,2013-07-31 00:44:00,
2013-07-30 20:45:00,72.4,60.3,30.01,WNW,293,1.3,2.5,66,0.00,,,0.00,WUHU216HW,2013-07-31 00:45:00,
2013-07-30 20:48:00,72.4,60.8,30.01,West,270,1.3,2.5,67,0.00,,,0.00,WUHU216HW,2013-07-31 00:48:00,
2013-07-30 20:49:00,72.4,60.8,30.01,WNW,293,0.7,2.5,67,0.00,,,0.00,WUHU216HW,2013-07-31 00:49:00,
2013-07-30 20:51:00,72.2,60.6,30.01,West,270,1.1,2.5,67,0.00,,,0.00,WUHU216HW,2013-07-31 00:51:00,
2013-07-30 20:53:00,72.2,61.0,30.01,West,270,1.3,2.5,68,0.00,,,0.00,WUHU216HW,2013-07-31 00:53:00,
2013-07-30 20:54:00,72.2,61.0,30.01,WNW,293,0.4,2.5,68,0.00,,,0.00,WUHU216HW,2013-07-31 00:54:00,
2013-07-30 20:56:00,72.2,61.0,30.01,West,270,0.4,1.3,68,0.00,,,0.00,WUHU216HW,2013-07-31 00:56:00,
2013-07-30 20:57:00,72.0,60.8,30.01,West,270,0.2,1.3,68,0.00,,,0.00,WUHU216HW,2013-07-31 00:57:00,
2013-07-30 20:58:00,72.0,60.8,30.01,WSW,248,0.0,1.3,68,0.00,,,0.00,WUHU216HW,2013-07-31 00:58:00,
2013-07-30 20:59:00,72.0,60.8,30.01,WSW,248,0.0,1.3,68,0.00,,,0.00,WUHU216HW,2013-07-31 00:59:00,
2013-07-30 21:03:00,71.8,61.1,30.01,NNW,338,0.0,1.3,69,0.00,,,0.00,WUHU216HW,2013-07-31 01:03:00,
2013-07-30 21:04:00,71.6,60.9,30.01,NNW,338,0.0,0.4,69,0.00,,,0.00,WUHU216HW,2013-07-31 01:04:00,
2013-07-30 21:08:00,71.5,60.3,30.01,NNW,338,0.0,0.0,68,0.00,,,0.00,WUHU216HW,2013-07-31 01:08:00,
2013-07-30 21:09:00,71.6,60.5,30.01,NNW,338,0.0,0.0,68,0.00,,,0.00,WUHU216HW,2013-07-31 01:09:00,
2013-07-30 21:10:00,71.5,60.3,30.01,NNW,338,0.0,0.0,68,0.00,,,0.00,WUHU216HW,2013-07-31 01:10:00,
2013-07-30 21:12:00,71.5,60.8,30.01,NW,315,1.3,1.3,69,0.00,,,0.00,WUHU216HW,2013-07-31 01:12:00,
2013-07-30 21:14:00,71.5,60.8,30.01,West,270,0.4,1.3,69,0.00,,,0.00,WUHU216HW,2013-07-31 01:14:00,
2013-07-30 21:15:00,71.3,60.6,30.01,West,270,0.4,1.3,69,0.00,,,0.00,WUHU216HW,2013-07-31 01:15:00,
2013-07-30 21:19:00,71.3,60.6,30.01,WNW,293,0.0,1.3,69,0.00,,,0.00,WUHU216HW,2013-07-31 01:19:00,
2013-07-30 21:20:00,71.3,60.6,30.01,WNW,293,1.8,1.8,69,0.00,,,0.00,WUHU216HW,2013-07-31 01:20:00,
2013-07-30 21:21:00,71.3,60.6,30.01,West,270,1.8,1.8,69,0.00,,,0.00,WUHU216HW,2013-07-31 01:21:00,
2013-07-30 21:24:00,71.1,60.4,30.01,West,270,1.1,1.8,69,0.00,,,0.00,WUHU216HW,2013-07-31 01:24:00,
2013-07-30 21:25:00,71.1,60.4,30.01,WNW,293,1.3,1.8,69,0.00,,,0.00,WUHU216HW,2013-07-31 01:25:00,
2013-07-30 21:26:00,71.3,61.0,30.01,West,270,1.1,1.8,70,0.00,,,0.00,WUHU216HW,2013-07-31 01:26:00,
2013-07-30 21:27:00,71.1,60.4,30.01,West,270,1.6,1.8,69,0.00,,,0.00,WUHU216HW,2013-07-31 01:27:00,
2013-07-30 21:29:00,71.3,60.6,30.01,WNW,293,1.1,1.8,69,0.00,,,0.00,WUHU216HW,2013-07-31 01:29:00,
2013-07-30 21:30:00,71.3,60.6,30.01,WNW,293,1.1,1.8,69,0.00,,,0.00,WUHU216HW,2013-07-31 01:30:00,
2013-07-30 21:31:00,71.3,60.6,30.01,WSW,248,1.1,1.8,69,0.00,,,0.00,WUHU216HW,2013-07-31 01:31:00,
2013-07-30 21:33:00,71.3,60.6,30.01,WSW,248,0.9,1.6,69,0.00,,,0.00,WUHU216HW,2013-07-31 01:33:00,
2013-07-30 21:34:00,71.3,61.0,30.01,West,270,2.2,2.2,70,0.00,,,0.00,WUHU216HW,2013-07-31 01:34:00,
2013-07-30 21:35:00,71.3,61.0,30.01,West,270,2.2,2.2,70,0.00,,,0.00,WUHU216HW,2013-07-31 01:35:00,
2013-07-30 21:36:00,71.3,61.0,30.01,West,270,1.3,2.2,70,0.00,,,0.00,WUHU216HW,2013-07-31 01:36:00,
2013-07-30 21:39:00,71.1,61.2,30.01,SW,225,0.4,2.2,71,0.00,,,0.00,WUHU216HW,2013-07-31 01:39:00,
2013-07-30 21:40:00,70.9,61.0,30.01,SW,225,0.4,2.2,71,0.00,,,0.00,WUHU216HW,2013-07-31 01:40:00,
2013-07-30 21:42:00,70.9,61.0,30.01,WSW,248,1.3,2.2,71,0.00,,,0.00,WUHU216HW,2013-07-31 01:42:00,
2013-07-30 21:44:00,70.6,61.0,30.01,SW,225,0.4,2.2,72,0.00,,,0.00,WUHU216HW,2013-07-31 01:44:00,
2013-07-30 21:45:00,70.6,61.0,30.00,SW,225,0.4,1.3,72,0.00,,,0.00,WUHU216HW,2013-07-31 01:45:00,
2013-07-30 21:46:00,70.4,60.8,30.00,SSW,203,0.0,1.3,72,0.00,,,0.00,WUHU216HW,2013-07-31 01:46:00,
2013-07-30 21:47:00,70.2,60.7,30.00,WSW,248,0.7,1.3,72,0.00,,,0.00,WUHU216HW,2013-07-31 01:47:00,
2013-07-30 21:49:00,70.0,60.5,30.01,SW,225,1.1,1.3,72,0.00,,,0.00,WUHU216HW,2013-07-31 01:49:00,
2013-07-30 21:50:00,70.0,60.5,30.01,SW,225,0.9,1.3,72,0.00,,,0.00,WUHU216HW,2013-07-31 01:50:00,
2013-07-30 21:51:00,70.0,60.9,30.01,West,270,1.1,1.1,73,0.00,,,0.00,WUHU216HW,2013-07-31 01:51:00,
2013-07-30 21:52:00,70.0,60.5,30.01,WSW,248,0.9,1.1,72,0.00,,,0.00,WUHU216HW,2013-07-31 01:52:00,
2013-07-30 21:55:00,70.0,60.9,30.00,West,270,1.1,1.6,73,0.00,,,0.00,WUHU216HW,2013-07-31 01:55:00,
2013-07-30 21:56:00,69.8,60.3,30.01,West,270,1.3,1.6,72,0.00,,,0.00,WUHU216HW,2013-07-31 01:56:00,
2013-07-30 21:57:00,70.0,60.5,30.00,WSW,248,0.9,1.6,72,0.00,,,0.00,WUHU216HW,2013-07-31 01:57:00,
2013-07-30 21:59:00,70.0,60.9,30.01,WSW,248,0.4,1.6,73,0.00,,,0.00,WUHU216HW,2013-07-31 01:59:00,
2013-07-30 22:00:00,70.0,60.9,30.00,WSW,248,0.7,1.6,73,0.00,,,0.00,WUHU216HW,2013-07-31 02:00:00,
2013-07-30 22:03:00,69.8,60.8,30.01,WSW,248,0.0,1.6,73,0.00,,,0.00,WUHU216HW,2013-07-31 02:03:00,
2013-07-30 22:04:00,69.8,60.8,30.01,WSW,248,0.0,1.3,73,0.00,,,0.00,WUHU216HW,2013-07-31 02:04:00,
2013-07-30 22:05:00,69.8,60.8,30.00,SW,225,0.0,1.3,73,0.00,,,0.00,WUHU216HW,2013-07-31 02:05:00,
2013-07-30 22:06:00,69.7,60.9,30.01,SW,225,0.0,1.1,74,0.00,,,0.00,WUHU216HW,2013-07-31 02:06:00,
2013-07-30 22:08:00,69.7,60.6,30.01,WSW,248,1.1,1.1,73,0.00,,,0.00,WUHU216HW,2013-07-31 02:08:00,
2013-07-30 22:09:00,69.5,60.8,30.01,SW,225,0.4,1.1,74,0.00,,,0.00,WUHU216HW,2013-07-31 02:09:00,
2013-07-30 22:10:00,69.5,60.8,30.01,SW,225,0.4,1.1,74,0.00,,,0.00,WUHU216HW,2013-07-31 02:10:00,
2013-07-30 22:11:00,69.5,60.8,30.01,WSW,248,1.8,1.8,74,0.00,,,0.00,WUHU216HW,2013-07-31 02:11:00,
2013-07-30 22:12:00,69.5,60.8,30.01,WSW,248,1.6,1.8,74,0.00,,,0.00,WUHU216HW,2013-07-31 02:12:00,
2013-07-30 22:14:00,69.5,60.8,30.01,WSW,248,0.9,1.8,74,0.00,,,0.00,WUHU216HW,2013-07-31 02:14:00,
2013-07-30 22:15:00,69.5,60.8,30.01,West,270,1.1,1.8,74,0.00,,,0.00,WUHU216HW,2013-07-31 02:15:00,
2013-07-30 22:16:00,69.5,60.8,30.01,WNW,293,0.4,1.8,74,0.00,,,0.00,WUHU216HW,2013-07-31 02:16:00,
2013-07-30 22:18:00,69.3,60.2,30.01,West,270,1.1,1.8,73,0.00,,,0.00,WUHU216HW,2013-07-31 02:18:00,
2013-07-30 22:19:00,69.3,60.2,30.01,West,270,0.4,1.8,73,0.00,,,0.00,WUHU216HW,2013-07-31 02:19:00,
2013-07-30 22:20:00,69.5,60.8,30.01,West,270,0.7,1.8,74,0.00,,,0.00,WUHU216HW,2013-07-31 02:20:00,
2013-07-30 22:21:00,69.5,60.4,30.01,WSW,248,0.4,1.6,73,0.00,,,0.00,WUHU216HW,2013-07-31 02:21:00,
2013-07-30 22:22:00,69.3,60.2,30.01,WSW,248,0.0,1.3,73,0.00,,,0.00,WUHU216HW,2013-07-31 02:22:00,
2013-07-30 22:24:00,69.3,60.6,30.01,WSW,248,0.4,1.1,74,0.00,,,0.00,WUHU216HW,2013-07-31 02:24:00,
2013-07-30 22:26:00,69.3,60.6,30.01,SW,225,0.9,1.1,74,0.00,,,0.00,WUHU216HW,2013-07-31 02:26:00,
2013-07-30 22:28:00,69.3,60.6,30.01,West,270,1.8,1.8,74,0.00,,,0.00,WUHU216HW,2013-07-31 02:28:00,
2013-07-30 22:30:00,69.1,60.5,30.01,SW,225,1.8,1.8,74,0.00,,,0.00,WUHU216HW,2013-07-31 02:30:00,
2013-07-30 22:32:00,69.1,60.0,30.01,West,270,2.2,2.2,73,0.00,,,0.00,WUHU216HW,2013-07-31 02:32:00,
2013-07-30 22:33:00,69.1,60.0,30.01,WNW,293,3.1,3.1,73,0.00,,,0.00,WUHU216HW,2013-07-31 02:33:00,
2013-07-30 22:35:00,69.1,60.0,30.01,West,270,3.4,3.4,73,0.00,,,0.00,WUHU216HW,2013-07-31 02:35:00,
2013-07-30 22:37:00,69.1,60.0,30.01,West,270,2.5,3.4,73,0.00,,,0.00,WUHU216HW,2013-07-31 02:37:00,
2013-07-30 22:38:00,69.3,60.2,30.01,West,270,2.9,3.4,73,0.00,,,0.00,WUHU216HW,2013-07-31 02:38:00,
2013-07-30 22:39:00,69.3,60.2,30.01,West,270,3.1,3.4,73,0.00,,,0.00,WUHU216HW,2013-07-31 02:39:00,
2013-07-30 22:40:00,69.3,60.2,30.01,WNW,293,2.5,3.4,73,0.00,,,0.00,WUHU216HW,2013-07-31 02:40:00,
2013-07-30 22:43:00,69.3,60.2,30.01,West,270,3.4,3.4,73,0.00,,,0.00,WUHU216HW,2013-07-31 02:43:00,
2013-07-30 22:45:00,69.1,60.0,30.01,West,270,3.1,3.4,73,0.00,,,0.00,WUHU216HW,2013-07-31 02:45:00,
2013-07-30 22:47:00,69.1,60.0,30.01,West,270,1.6,3.4,73,0.00,,,0.00,WUHU216HW,2013-07-31 02:47:00,
2013-07-30 22:49:00,69.1,60.0,30.00,WNW,293,2.0,3.4,73,0.00,,,0.00,WUHU216HW,2013-07-31 02:49:00,
2013-07-30 22:51:00,69.1,60.0,30.01,NW,315,1.6,3.4,73,0.00,,,0.00,WUHU216HW,2013-07-31 02:51:00,
2013-07-30 22:53:00,69.1,60.0,30.01,WNW,293,1.3,3.1,73,0.00,,,0.00,WUHU216HW,2013-07-31 02:53:00,
2013-07-30 22:54:00,69.1,60.0,30.01,WNW,293,1.3,3.1,73,0.00,,,0.00,WUHU216HW,2013-07-31 02:54:00,
2013-07-30 22:57:00,69.1,60.0,30.01,West,270,2.7,2.7,73,0.00,,,0.00,WUHU216HW,2013-07-31 02:57:00,
2013-07-30 22:58:00,69.1,60.0,30.01,West,270,3.1,3.1,73,0.00,,,0.00,WUHU216HW,2013-07-31 02:58:00,
2013-07-30 22:59:00,69.1,60.0,30.01,WNW,293,2.9,3.1,73,0.00,,,0.00,WUHU216HW,2013-07-31 02:59:00,
2013-07-30 23:00:00,69.1,60.0,30.01,WNW,293,2.0,3.1,73,0.00,,,0.00,WUHU216HW,2013-07-31 03:00:00,
2013-07-30 23:02:00,69.1,60.0,30.01,West,270,3.4,3.4,73,0.00,,,0.00,WUHU216HW,2013-07-31 03:02:00,
2013-07-30 23:04:00,69.1,60.0,30.01,West,270,2.7,3.4,73,0.00,,,0.00,WUHU216HW,2013-07-31 03:04:00,
2013-07-30 23:05:00,68.9,60.0,30.01,West,270,1.6,3.4,73,0.00,,,0.00,WUHU216HW,2013-07-31 03:05:00,
2013-07-30 23:06:00,68.9,60.0,30.01,West,270,1.6,3.4,73,0.00,,,0.00,WUHU216HW,2013-07-31 03:06:00,
2013-07-30 23:08:00,68.9,60.3,30.01,WSW,248,0.0,3.4,74,0.00,,,0.00,WUHU216HW,2013-07-31 03:08:00,
2013-07-30 23:10:00,68.8,60.1,30.01,WSW,248,0.0,3.4,74,0.00,,,0.00,WUHU216HW,2013-07-31 03:10:00,
2013-07-30 23:11:00,68.4,60.2,30.01,SW,225,0.0,3.4,75,0.00,,,0.00,WUHU216HW,2013-07-31 03:11:00,
2013-07-30 23:14:00,67.9,60.0,30.01,SW,225,0.0,1.6,76,0.00,,,0.00,WUHU216HW,2013-07-31 03:14:00,
2013-07-30 23:15:00,67.7,59.9,30.01,SW,225,0.0,1.1,76,0.00,,,0.00,WUHU216HW,2013-07-31 03:15:00,
2013-07-30 23:16:00,67.5,60.0,30.01,SW,225,0.0,0.0,77,0.00,,,0.00,WUHU216HW,2013-07-31 03:16:00,
2013-07-30 23:17:00,67.5,60.0,30.01,SW,225,0.0,0.0,77,0.00,,,0.00,WUHU216HW,2013-07-31 03:17:00,
2013-07-30 23:20:00,67.1,60.5,30.00,SSW,203,0.7,0.7,79,0.00,,,0.00,WUHU216HW,2013-07-31 03:20:00,
2013-07-30 23:21:00,67.0,60.7,30.00,SSW,203,0.4,0.7,80,0.00,,,0.00,WUHU216HW,2013-07-31 03:21:00,
2013-07-30 23:22:00,67.0,60.7,30.00,SSW,203,0.4,0.7,80,0.00,,,0.00,WUHU216HW,2013-07-31 03:22:00,
2013-07-30 23:26:00,66.6,60.7,30.00,SW,225,0.4,0.7,81,0.00,,,0.00,WUHU216HW,2013-07-31 03:26:00,
2013-07-30 23:27:00,66.4,60.5,30.00,SW,225,0.9,0.9,81,0.00,,,0.00,WUHU216HW,2013-07-31 03:27:00,
2013-07-30 23:28:00,66.4,60.5,30.01,SW,225,0.9,0.9,81,0.00,,,0.00,WUHU216HW,2013-07-31 03:28:00,
2013-07-30 23:29:00,66.2,60.6,30.01,SW,225,0.7,0.9,82,0.00,,,0.00,WUHU216HW,2013-07-31 03:29:00,
2013-07-30 23:31:00,66.2,60.6,30.01,SW,225,0.4,0.9,82,0.00,,,0.00,WUHU216HW,2013-07-31 03:31:00,
2013-07-30 23:32:00,66.1,60.4,30.01,SW,225,0.2,0.9,82,0.00,,,0.00,WUHU216HW,2013-07-31 03:32:00,
2013-07-30 23:33:00,66.1,60.4,30.01,SW,225,0.0,0.9,82,0.00,,,0.00,WUHU216HW,2013-07-31 03:33:00,
2013-07-30 23:34:00,65.9,60.2,30.00,SW,225,0.0,0.9,82,0.00,,,0.00,WUHU216HW,2013-07-31 03:34:00,
2013-07-30 23:37:00,65.9,60.2,30.00,SW,225,0.0,0.7,82,0.00,,,0.00,WUHU216HW,2013-07-31 03:37:00,
2013-07-30 23:39:00,65.9,60.2,30.00,SW,225,0.0,0.4,82,0.00,,,0.00,WUHU216HW,2013-07-31 03:39:00,
2013-07-30 23:40:00,65.9,60.2,30.01,SSW,203,0.2,0.4,82,0.00,,,0.00,WUHU216HW,2013-07-31 03:40:00,
2013-07-30 23:44:00,65.9,60.2,30.01,SSW,203,0.7,0.7,82,0.00,,,0.00,WUHU216HW,2013-07-31 03:44:00,
2013-07-30 23:45:00,65.9,60.2,30.01,SSW,203,0.7,0.7,82,0.00,,,0.00,WUHU216HW,2013-07-31 03:45:00,
2013-07-30 23:47:00,65.7,60.4,30.01,SSW,203,0.7,0.7,83,0.00,,,0.00,WUHU216HW,2013-07-31 03:47:00,
2013-07-30 23:50:00,65.5,60.6,30.01,SSW,203,0.7,0.7,84,0.00,,,0.00,WUHU216HW,2013-07-31 03:50:00,
2013-07-30 23:51:00,65.5,60.6,30.01,SW,225,0.7,0.7,84,0.00,,,0.00,WUHU216HW,2013-07-31 03:51:00,
2013-07-30 23:52:00,65.5,60.6,30.01,SW,225,1.1,1.1,84,0.00,,,0.00,WUHU216HW,2013-07-31 03:52:00,
2013-07-30 23:55:00,65.5,60.8,30.01,SSW,203,1.1,1.8,85,0.00,,,0.00,WUHU216HW,2013-07-31 03:55:00,
2013-07-30 23:56:00,65.5,60.8,30.01,SW,225,1.3,1.8,85,0.00,,,0.00,WUHU216HW,2013-07-31 03:56:00,
2013-07-30 23:57:00,65.5,60.8,30.01,SW,225,1.1,1.8,85,0.00,,,0.00,WUHU216HW,2013-07-31 03:57:00,
2013-07-30 23:58:00,65.5,60.8,30.01,SW,225,1.8,1.8,85,0.00,,,0.00,WUHU216HW,2013-07-31 03:58:00,